GEFSSE_con_cape1000_012.txt.gz
Probability
77 100 100 100 100 100 100 100 100 100 100 100 100 100 100 100 100 100 100 100 100 100 100 100 100 100 100 100 100 100 100 100 100 100 90 100 97 94 100 100 97 6 42
65 100 100 100 100 100 100 100 100 100 100 100 100 100 100 100 100 100 100 100 100 100 100 100 100 100 100 100 100 90 68 74 68 42 35 77 100 100 97 100 97 35 87
87 100 100 100 100 100 100 100 100 100 100 100 100 100 100 100 100 100 100 100 100 100 100 100 100 100 100 100 100 84 48 45 55 74 77 58 90 100 100 100 100 100 97
84 100 100 100 100 100 100 100 100 100 100 100 100 100 100 100 100 100 100 100 100 100 100 100 100 97 97 97 97 77 68 77 100 94 61 74 100 100 100 100 100 100 100
90 100 100 100 100 100 100 100 100 100 100 100 100 100 100 100 100 100 100 100 100 100 100 100 100 100 100 100 97 94 71 77 68 52 3 39 74 97 100 94 97 100 100
100 100 100 100 100 100 100 100 100 100 100 100 100 100 100 100 100 100 100 100 100 100 100 100 100 100 84 71 55 45 32 13 6 0 0 0 39 71 65 71 87 94 97
97 100 100 100 100 100 100 100 100 100 100 100 100 97 97 97 100 100 100 100 100 100 100 84 74 39 16 6 0 0 0 0 0 0 0 0 0 29 19 13 39 48 55
84 90 100 100 100 100 100 100 100 100 100 100 97 97 97 97 97 100 100 100 100 94 71 45 16 6 0 0 0 0 0 0 0 0 0 0 0 6 0 0 0 0 6
68 74 81 97 97 100 100 100 100 100 100 97 97 90 94 100 97 100 100 100 97 71 35 10 3 0 0 0 0 0 0 0 0 0 0 0 0 0 0 0 0 0 0
61 65 74 94 97 100 100 100 100 100 100 100 100 97 97 94 100 97 100 94 81 45 16 0 0 0 0 0 0 0 0 0 0 0 0 0 0 0 0 0 0 0 0
55 52 61 87 97 97 94 100 100 100 100 100 97 100 97 68 71 84 84 90 71 29 10 0 0 0 0 0 0 0 0 0 0 0 0 0 0 0 0 0 0 0 0
55 58 61 84 97 100 100 100 100 100 100 94 81 90 61 16 26 58 77 81 61 32 16 3 0 3 0 0 0 0 0 0 0 0 0 0 0 0 0 0 0 0 0
52 55 71 81 97 97 97 90 81 71 52 35 32 23 10 6 0 29 3 16 29 19 0 0 0 0 0 0 0 0 0 0 0 0 0 0 0 0 0 0 0 0 0
52 58 77 87 74 68 84 90 90 74 39 23 16 0 0 0 0 0 0 0 0 0 0 0 0 0 0 0 0 0 0 0 0 0 0 0 0 0 0 3 10 0 10
35 39 48 35 29 26 39 35 71 68 58 13 3 3 3 3 0 3 0 0 0 0 0 0 0 0 0 0 0 0 0 0 0 0 0 0 16 13 3 19 48 48 58
19 19 16 6 3 0 0 3 16 10 10 0 0 0 0 0 0 0 0 0 0 0 0 0 0 0 0 0 0 0 0 0 0 0 0 0 35 71 81 74 71 90 87
3 3 3 0 0 0 0 0 0 0 0 0 0 0 0 0 0 0 0 0 0 0 0 0 0 0 0 0 0 0 0 0 0 0 0 0 0 13 61 77 81 90 84
0 0 0 0 0 0 0 0 0 0 0 0 0 0 0 0 0 0 0 0 0 0 0 0 0 0 0 0 0 0 0 0 0 0 0 0 0 0 0 23 48 61 65
0 0 0 0 0 0 0 0 0 0 0 0 0 0 0 0 0 0 0 0 0 0 0 0 0 0 0 0 0 0 0 0 0 0 0 0 0 0 0 0 3 19 39
0 0 0 0 0 0 0 0 0 0 0 0 0 0 0 0 0 0 0 0 0 0 0 0 0 0 0 0 0 0 0 0 0 0 0 0 0 0 0 0 0 0 3
0 0 0 0 0 0 0 0 0 0 0 0 0 0 0 0 0 0 0 0 0 0 0 0 0 0 0 0 0 0 0 0 0 0 0 0 0 0 0 0 0 0 0
0 0 0 0 0 0 0 0 0 0 0 0 0 0 0 0 0 0 0 0 0 0 0 0 0 0 0 0 0 0 0 0 0 0 0 0 0 0 0 0 0 0 0
0 0 0 0 0 0 0 0 0 0 0 0 0 0 0 0 0 0 0 0 0 0 0 0 0 0 0 0 0 0 0 0 0 0 0 0 0 0 0 0 0 0 0
0 0 0 0 0 0 0 0 0 0 0 0 0 0 0 0 0 0 0 0 0 0 0 0 0 0 0 0 0 0 0 0 0 0 0 0 0 0 0 0 0 0 0
0 0 0 0 0 0 0 0 0 0 0 0 0 0 0 0 0 0 0 0 0 0 0 0 0 0 0 0 0 0 0 0 0 0 0 0 0 0 0 0 0 0 0
0 0 0 0 0 0 0 0 0 0 0 0 0 0 0 0 0 0 0 0 0 0 0 0 0 0 0 0 0 0 0 0 0 0 0 0 0 0 0 0 0 0 0

GEFSSE_con_cape1000_018.txt.gz
Probability
19 52 100 100 100 100 100 100 100 100 100 100 100 100 100 100 100 100 100 100 100 100 100 100 100 100 100 100 100 100 100 100 100 100 100 100 100 100 100 100 77 19 74
42 94 100 100 100 100 100 100 100 100 100 100 100 100 100 100 100 100 100 100 100 100 100 100 100 100 100 100 100 94 90 84 90 100 100 100 100 100 100 100 94 52 81
65 94 100 100 100 100 100 100 100 100 100 100 100 100 100 100 100 100 100 100 100 100 100 100 100 100 100 100 97 94 65 58 81 84 97 94 100 100 100 97 97 94 94
90 100 100 100 100 100 100 100 100 100 100 100 100 100 100 100 100 100 100 100 100 100 100 100 100 100 100 100 100 94 77 90 87 81 74 77 90 100 100 100 100 100 100
94 100 100 100 100 100 100 100 100 100 100 100 100 100 100 100 100 100 100 100 100 100 100 100 100 100 97 94 84 77 52 45 52 23 23 61 81 100 97 100 100 100 100
100 100 100 100 100 100 100 100 100 100 100 100 100 100 100 100 100 100 100 100 100 100 100 100 97 87 68 48 32 19 10 13 0 6 10 16 58 90 84 84 90 97 97
100 100 100 100 100 100 100 100 100 100 100 100 100 100 97 97 97 97 97 100 100 100 97 84 77 42 23 6 0 0 3 6 0 3 3 3 3 39 42 48 65 74 90
100 100 100 100 100 100 100 100 100 100 100 100 97 97 97 94 90 94 97 100 100 87 74 65 39 13 3 0 0 0 0 0 3 0 0 0 0 3 16 6 16 23 45
97 97 97 97 100 100 100 100 100 100 100 100 100 97 94 84 84 97 97 100 90 81 65 35 10 6 0 0 0 0 0 3 0 0 0 0 0 0 0 0 0 0 6
65 81 84 90 97 100 100 100 100 100 100 100 100 94 94 97 94 97 97 100 87 74 45 23 6 0 0 0 0 0 0 0 0 0 0 0 0 0 0 0 0 0 0
55 61 71 77 84 90 100 100 100 100 100 97 100 97 94 45 32 52 68 87 71 71 32 13 3 0 0 0 0 0 0 0 0 0 0 0 0 0 0 0 0 0 0
52 52 65 71 71 71 90 97 84 97 90 87 74 74 35 6 0 16 16 84 68 45 23 16 16 0 0 0 0 0 0 0 0 0 0 0 0 0 0 3 3 0 0
39 55 61 48 61 52 48 39 13 19 29 26 26 16 0 0 0 0 0 0 0 0 0 0 0 0 0 0 0 0 0 0 0 0 0 0 0 0 3 16 35 16 23
52 52 52 45 48 26 16 13 0 0 0 0 0 0 0 0 0 0 0 0 0 0 0 0 0 0 0 0 0 0 0 0 0 0 0 0 0 10 13 26 61 65 71
45 48 55 58 42 16 3 3 0 0 0 0 0 0 0 0 0 0 0 0 0 0 0 0 0 0 0 0 0 0 0 0 0 0 0 0 0 3 6 16 29 48 71
39 45 48 48 26 13 6 3 3 0 0 0 0 0 0 0 0 0 0 0 0 0 0 0 0 0 0 0 0 0 0 0 0 0 0 0 0 0 3 6 6 16 29
39 35 32 23 0 0 0 0 0 0 0 0 0 0 0 0 0 0 0 0 0 0 0 0 0 0 0 0 0 0 0 0 0 0 0 0 0 0 0 0 0 0 6
35 26 16 6 0 0 0 0 0 0 0 0 0 0 0 0 0 0 0 0 0 0 0 0 0 0 0 0 0 0 0 0 0 0 0 0 0 0 0 0 0 0 0
10 6 3 0 0 0 0 0 0 0 0 0 0 0 0 0 0 0 0 0 0 0 0 0 0 0 0 0 0 0 0 0 0 0 0 0 0 0 0 0 0 0 0
0 0 0 0 0 0 0 0 0 0 0 0 0 0 0 0 0 0 0 0 0 0 0 0 0 0 0 0 0 0 0 0 0 0 0 0 0 0 0 0 0 0 0
0 0 0 0 0 0 0 0 0 0 0 0 0 0 0 0 0 0 0 0 0 0 0 0 0 0 0 0 0 0 0 0 0 0 0 0 0 0 0 0 0 0 0
0 0 0 0 0 0 0 0 0 0 0 0 0 0 0 0 0 0 0 0 0 0 0 0 0 0 0 0 0 0 0 0 0 0 0 0 0 0 0 0 0 0 0
0 0 0 0 0 0 0 0 0 0 0 0 0 0 0 0 0 0 0 0 0 0 0 0 0 0 0 0 0 0 0 0 0 0 0 0 0 0 0 0 0 0 0
0 0 0 0 0 0 0 0 0 0 0 0 0 0 0 0 0 0 0 0 0 0 0 0 0 0 0 0 0 0 0 0 0 0 0 0 0 0 0 0 0 0 0
0 0 0 0 0 0 0 0 0 0 0 0 0 0 0 0 0 0 0 0 0 0 0 0 0 0 0 0 0 0 0 0 0 0 0 0 0 0 0 0 0 0 0
0 0 0 0 0 0 0 0 0 0 0 0 0 0 0 0 0 0 0 0 0 0 0 0 0 0 0 0 0 0 0 0 0 0 0 0 0 0 0 0 0 0 0

GEFSSE_con_cape1000_024.txt.gz
Probability
0 10 100 100 100 100 100 100 100 100 100 100 100 100 100 100 100 100 100 100 100 100 97 97 97 97 100 100 100 100 100 100 100 100 100 97 97 100 97 81 71 26 81
3 26 100 100 100 100 100 100 100 100 100 100 100 100 100 100 100 100 100 100 100 100 97 97 97 97 100 100 100 90 81 94 97 100 100 100 100 100 100 97 84 97 74
13 81 100 100 100 100 100 100 100 100 100 100 100 100 100 100 100 100 100 100 100 100 100 97 97 100 100 100 90 84 52 42 58 77 94 100 100 97 90 90 87 90 90
52 94 97 100 100 100 100 100 100 100 100 100 100 100 100 100 94 94 90 87 90 100 97 100 100 100 100 97 87 71 52 45 55 61 48 65 90 94 81 74 90 94 90
90 100 100 100 100 100 100 100 100 100 100 100 100 100 100 100 94 90 71 71 74 87 97 97 97 87 74 61 48 35 32 35 45 32 35 58 90 100 90 77 87 94 97
94 90 100 100 100 100 100 100 100 100 100 100 100 100 100 97 94 90 84 84 77 81 87 81 81 52 32 19 10 6 10 13 23 10 32 45 71 97 84 81 84 90 90
74 65 100 100 100 100 100 100 100 100 100 100 100 100 100 100 94 94 84 77 81 84 74 61 52 29 3 0 0 3 6 3 6 10 23 48 68 65 68 58 61 74 87
52 48 100 100 100 100 100 100 100 100 100 100 100 97 97 94 90 90 87 84 81 65 55 48 23 6 0 0 0 0 0 3 6 6 16 45 10 10 16 26 32 45 58
52 61 97 100 100 100 100 100 100 100 100 100 97 97 97 87 81 84 84 74 71 52 35 16 10 3 0 0 0 3 3 0 3 6 0 6 0 0 0 3 0 6 13
68 77 94 100 100 100 100 100 100 100 100 100 97 97 90 87 81 77 87 65 48 39 23 6 3 0 0 0 0 0 0 0 0 0 0 0 0 0 0 0 0 0 0
87 94 94 100 100 100 100 100 100 100 100 100 97 90 87 90 81 74 74 77 52 29 13 6 6 0 0 0 0 0 0 0 0 0 0 0 0 0 0 0 0 0 0
97 100 97 100 100 100 90 100 100 97 100 100 100 100 100 100 87 55 35 84 58 42 16 13 3 0 0 0 0 0 0 0 0 0 0 0 0 0 0 0 3 0 0
97 97 97 94 97 84 94 97 94 87 97 94 94 100 100 90 87 68 68 39 26 13 0 0 0 0 0 0 0 0 0 0 0 0 0 0 0 0 0 6 10 13 16
84 87 84 87 97 90 87 87 94 71 90 74 97 94 87 81 90 61 48 13 13 10 10 6 0 0 0 0 0 0 0 0 0 0 0 0 0 0 3 10 13 26 42
77 87 81 100 100 100 100 97 71 81 81 97 90 90 87 58 61 65 39 45 13 6 3 3 0 0 0 0 0 0 0 0 0 0 0 0 0 0 3 3 6 13 16
81 84 90 100 100 100 100 100 97 90 100 84 74 71 61 52 68 61 61 61 29 19 13 10 0 3 0 0 0 0 0 0 0 0 0 0 0 3 3 3 3 0 3
87 90 94 97 97 97 100 97 90 90 90 74 58 55 35 26 39 35 32 29 19 13 23 13 6 6 10 3 0 0 0 0 0 0 0 0 0 0 0 0 0 0 0
94 90 87 81 94 97 97 97 84 71 61 55 48 32 23 23 23 23 10 6 6 3 3 6 10 6 6 6 3 3 0 3 3 3 3 3 0 0 0 0 0 0 0
97 97 90 87 90 90 84 61 58 58 35 26 19 16 3 3 0 0 0 0 0 0 0 0 0 3 6 6 3 3 0 0 3 3 3 3 3 3 3 0 0 0 0
94 97 90 90 87 71 55 39 23 19 13 0 0 0 0 0 0 0 0 0 0 0 0 0 0 0 0 0 0 0 0 0 0 0 0 0 3 3 0 0 0 0 0
87 87 74 68 58 48 32 16 13 3 0 0 0 0 0 0 0 0 0 0 0 0 0 0 0 0 0 0 0 0 0 0 0 0 0 0 0 0 0 0 0 0 0
71 71 55 42 29 23 23 19 3 3 0 0 0 0 0 0 0 0 0 0 0 0 0 0 0 0 0 0 0 0 0 0 0 0 0 0 0 0 0 0 0 0 0
58 45 23 13 13 6 6 0 0 0 0 0 0 0 0 0 0 0 0 0 0 0 0 0 0 0 0 0 0 0 0 0 0 0 0 0 0 0 0 0 0 0 0
19 6 3 6 3 3 0 0 0 0 0 0 0 0 0 0 0 0 0 0 0 0 0 0 0 0 0 0 0 0 0 0 0 0 0 0 0 0 0 0 0 0 0
0 0 0 0 0 0 0 0 0 0 0 0 0 0 0 0 0 0 0 0 0 0 0 0 0 0 0 0 0 0 0 0 0 0 0 0 0 0 0 0 0 0 0
0 0 0 0 0 0 0 0 0 0 0 0 0 0 0 0 0 0 0 0 0 0 0 0 0 0 0 0 0 0 0 0 0 0 0 0 0 0 0 0 0 0 0

GEFSSE_con_cape1000_030.txt.gz
Probability
42 65 100 100 100 100 100 100 100 100 100 100 100 100 100 100 100 100 100 100 100 100 100 100 100 100 100 100 100 94 97 97 94 90 90 94 90 94 87 87 94 97 90
65 90 100 100 100 100 100 100 100 100 100 100 100 100 100 100 100 100 100 100 100 94 97 97 100 100 100 94 84 61 61 65 77 84 90 90 81 68 81 77 90 94 77
97 97 100 100 100 100 100 100 100 100 100 100 100 100 100 100 100 100 100 97 94 94 94 94 97 97 90 71 45 19 13 10 26 48 77 94 87 81 68 55 74 94 77
100 100 100 100 100 100 100 100 100 100 100 100 100 100 100 100 100 100 90 90 90 94 94 94 90 87 77 61 19 6 6 13 39 68 29 68 87 87 94 74 71 77 81
100 100 100 100 100 100 100 100 100 100 100 100 100 100 100 100 97 87 87 81 87 94 90 90 74 68 42 42 32 13 13 35 48 42 26 65 84 94 97 87 77 90 94
100 100 100 100 100 100 100 100 100 100 100 100 100 100 100 100 90 87 94 90 90 84 84 74 61 32 26 16 6 3 6 16 26 13 29 81 81 97 94 90 81 87 94
100 100 100 100 100 100 100 100 100 100 100 100 100 100 100 100 97 87 81 81 77 71 68 55 35 19 6 0 3 3 3 3 10 10 42 71 77 84 84 74 61 71 84
100 100 100 100 100 100 100 100 100 100 100 100 100 100 100 100 97 94 84 81 61 58 52 29 19 6 0 0 0 0 0 0 0 10 42 45 55 61 55 45 45 39 48
100 100 100 100 100 100 100 100 100 100 100 100 100 100 100 100 97 90 90 74 55 39 45 23 10 3 3 0 0 0 0 3 3 6 10 10 26 23 13 13 13 16 23
97 100 100 100 100 100 100 100 100 100 100 100 97 97 100 100 97 97 94 71 52 45 39 19 6 3 0 0 0 0 0 0 0 0 0 0 6 6 3 0 0 0 6
100 97 100 100 100 100 100 100 100 100 100 97 97 97 97 97 100 97 90 81 55 32 29 13 10 6 6 3 0 0 0 0 0 0 0 3 6 3 0 0 0 0 0
94 94 100 100 100 100 100 100 100 100 100 100 100 97 97 100 100 87 84 84 65 48 39 16 23 10 6 0 0 0 0 0 0 0 0 10 13 6 6 0 0 0 3
87 94 97 97 100 100 100 100 100 100 100 100 100 97 100 100 97 94 84 87 74 45 32 19 13 6 0 0 0 0 0 0 0 0 6 42 23 16 6 13 13 16 23
87 81 84 94 100 100 100 100 100 97 100 100 100 97 100 100 100 100 100 87 77 52 55 26 29 3 0 0 0 0 0 0 0 0 6 32 42 32 10 16 19 26 42
94 90 87 100 100 100 100 100 100 100 94 100 100 97 100 100 100 97 100 90 81 61 52 52 23 19 6 3 0 0 0 0 0 3 6 23 29 29 23 16 23 23 26
97 97 97 100 100 100 100 100 100 100 100 100 100 97 81 100 100 94 97 94 87 87 68 61 48 48 16 35 16 13 10 3 10 26 6 6 16 16 16 13 13 13 13
100 100 100 100 100 100 100 100 100 100 100 100 100 94 77 87 81 84 81 77 77 65 39 68 39 39 39 19 13 23 6 26 6 16 19 10 3 10 16 16 16 13 10
100 100 100 100 100 100 100 100 100 100 100 97 94 84 71 58 52 68 74 55 42 39 39 42 32 29 26 16 13 10 10 10 6 16 6 3 3 0 3 16 16 6 6
100 100 100 100 100 100 100 100 100 97 94 90 77 65 52 32 29 35 48 32 23 26 19 3 6 6 6 6 3 3 3 3 3 3 3 3 3 3 3 3 6 6 3
100 100 100 100 100 100 100 87 84 81 77 68 55 42 32 16 10 16 19 13 6 10 6 10 0 0 0 0 0 0 0 0 0 3 3 3 3 3 0 0 0 0 0
100 100 100 100 100 100 87 84 74 68 55 45 42 19 16 6 6 3 3 3 0 3 0 0 0 0 0 0 0 0 0 0 0 0 0 0 0 0 0 0 0 0 0
100 100 100 100 100 97 87 81 74 55 39 16 6 6 3 3 0 0 3 0 0 0 0 0 0 0 0 0 0 0 0 0 0 0 0 0 0 0 0 0 0 0 0
100 100 100 97 90 81 77 55 39 16 10 3 3 3 0 0 0 0 0 0 0 0 0 0 0 0 0 0 0 0 0 0 0 0 0 0 0 0 0 0 0 0 0
97 97 90 81 74 55 48 35 13 10 0 0 0 0 0 0 0 0 0 0 0 0 0 0 0 0 0 0 0 0 0 0 0 0 0 0 0 0 0 0 0 0 0
90 71 61 48 42 32 26 23 23 6 6 3 3 0 0 0 0 0 0 0 0 0 0 0 0 0 0 0 0 0 0 0 0 0 0 0 0 0 0 0 0 0 0
65 45 35 26 13 13 13 13 10 10 6 3 3 0 0 0 0 0 0 0 0 0 0 0 0 0 0 0 0 0 0 0 0 0 0 0 0 0 0 0 0 0 0

GEFSSE_con_cape1000_036.txt.gz
Probability
58 100 100 100 100 100 100 100 100 100 100 100 100 100 100 100 100 100 100 100 100 100 100 100 100 100 100 100 100 100 100 100 100 97 100 100 100 100 100 100 100 100 100
74 100 100 100 100 100 100 100 100 100 100 100 100 100 100 100 100 100 100 100 100 100 100 100 100 100 97 94 84 68 68 68 87 90 84 87 97 100 100 100 100 100 100
81 100 100 100 100 100 100 100 100 100 100 100 100 100 100 100 100 100 100 100 100 100 100 100 90 87 87 77 65 55 32 52 65 61 77 61 81 94 97 100 100 100 100
87 94 100 100 100 100 100 100 100 100 100 100 100 100 100 100 100 100 100 100 100 100 97 90 87 87 84 58 29 23 29 39 52 61 13 29 68 87 97 97 97 100 100
48 84 100 100 100 100 100 100 100 100 100 100 100 100 100 100 100 100 100 100 97 94 97 84 74 65 48 35 23 23 19 19 29 32 13 10 32 81 97 97 97 97 97
39 87 100 100 100 100 100 100 100 100 100 100 100 100 100 100 100 100 100 100 97 97 87 71 55 42 35 19 13 3 3 13 6 6 13 29 55 87 90 97 94 97 97
45 90 100 100 100 100 100 100 100 100 100 100 100 100 100 100 100 100 100 97 97 97 81 61 42 29 13 13 0 3 0 3 0 10 29 45 55 84 94 94 94 90 94
61 100 100 100 100 100 100 100 100 100 100 100 100 100 100 100 100 100 100 97 94 87 71 45 35 23 16 16 10 13 6 0 6 26 35 42 65 77 84 81 87 87 87
84 100 100 100 100 100 100 100 100 100 100 100 100 100 100 100 100 100 100 97 90 84 71 32 26 16 16 16 10 10 6 3 0 13 45 42 68 71 77 58 61 55 68
90 100 100 100 100 100 100 100 100 100 100 100 100 100 100 100 100 100 100 94 90 81 61 45 29 19 19 13 13 10 3 3 0 0 3 19 71 65 48 42 39 45 48
100 100 100 100 100 100 100 100 100 100 100 100 100 100 100 90 81 90 87 94 84 74 61 55 35 23 19 13 13 16 6 0 0 0 0 19 55 39 26 26 29 23 16
94 100 100 100 100 100 100 100 100 100 94 97 97 100 84 13 13 52 81 90 87 77 65 55 52 32 19 3 0 3 0 0 0 0 0 32 55 35 23 23 19 13 13
84 90 100 100 100 100 100 100 97 81 90 77 71 74 35 13 6 42 39 87 71 65 32 23 23 13 3 3 0 0 0 0 0 0 0 48 71 55 23 16 16 16 19
90 90 100 100 97 100 97 87 84 65 65 52 42 35 19 13 10 16 6 16 6 6 3 0 0 0 0 0 0 0 0 0 0 0 3 48 68 71 42 32 32 39 55
90 94 97 100 100 100 77 81 77 68 61 29 39 48 19 19 16 19 6 3 3 0 0 0 0 0 0 0 0 0 0 0 0 0 0 39 65 77 68 55 45 48 52
94 97 100 100 100 100 81 74 77 71 61 35 35 52 39 10 16 16 3 3 0 0 0 0 0 0 0 0 0 0 0 0 0 0 0 0 48 65 61 55 58 48 45
77 90 97 100 100 90 81 77 81 81 61 42 32 19 23 6 0 0 0 0 0 0 0 0 0 0 0 0 0 0 0 0 0 0 0 0 0 10 48 52 55 42 39
77 74 94 100 97 81 77 65 74 71 45 23 13 0 3 0 0 0 0 0 0 0 0 0 0 0 0 0 0 0 0 0 0 0 0 0 0 0 3 29 32 29 23
68 74 84 94 87 74 42 52 45 39 39 13 3 0 0 0 0 0 0 0 0 0 0 0 0 0 0 0 0 0 0 0 0 0 0 0 0 0 0 0 10 16 13
61 65 71 84 71 55 39 29 16 3 6 0 0 0 0 0 0 0 0 0 0 0 0 0 0 0 0 0 0 0 0 0 0 0 0 0 0 0 0 0 0 0 3
48 68 77 87 84 61 39 42 16 6 0 0 0 0 0 0 0 0 0 0 0 0 0 0 0 0 0 0 0 0 0 0 0 0 0 0 0 0 0 0 0 0 0
68 71 77 90 81 52 32 23 10 6 3 0 0 0 0 0 0 0 0 0 0 0 0 0 0 0 0 0 0 0 0 0 0 0 0 0 0 0 0 0 0 0 0
74 74 84 84 71 45 26 19 6 0 0 0 0 0 0 0 0 0 0 0 0 0 0 0 0 0 0 0 0 0 0 0 0 0 0 0 0 0 0 0 0 0 0
71 84 81 74 55 42 26 23 6 0 0 0 0 0 0 0 0 0 0 0 0 0 0 0 0 0 0 0 0 0 0 0 0 0 0 0 0 0 0 0 0 0 0
87 77 58 39 35 26 23 6 0 0 0 0 0 0 0 0 0 0 0 0 0 0 0 0 0 0 0 0 0 0 0 0 0 0 0 0 0 0 0 0 0 0 0
68 42 32 26 16 10 3 0 0 0 0 0 0 0 0 0 0 0 0 0 0 0 0 0 0 0 0 0 0 0 0 0 0 0 0 0 0 0 0 0 0 0 0

GEFSSE_con_cape1000_042.txt.gz
Probability
0 90 100 100 100 100 100 100 100 100 100 100 100 100 100 100 100 100 100 100 100 100 100 100 100 100 100 100 100 100 100 100 100 100 100 100 100 100 100 100 100 100 100
10 100 100 100 100 100 100 100 100 100 100 100 100 100 100 100 100 100 100 100 100 100 100 100 100 100 100 100 94 94 84 90 97 97 100 100 100 100 100 97 100 100 100
84 100 100 100 100 100 100 100 100 100 100 100 100 100 100 100 100 100 100 100 100 100 100 100 97 94 94 94 87 81 71 77 84 87 90 77 97 100 100 100 100 100 100
100 100 100 100 100 100 100 100 100 100 100 100 100 100 100 100 100 100 100 100 100 100 100 94 90 81 77 68 58 52 45 39 52 65 39 65 84 97 100 100 100 100 100
97 100 100 100 100 100 100 100 100 100 100 100 100 100 100 100 100 100 100 100 97 97 90 81 68 68 52 42 32 29 26 29 45 35 16 35 58 90 100 100 100 100 100
100 100 100 100 100 100 100 100 100 100 100 100 100 100 100 100 100 100 100 97 97 97 84 71 61 45 35 23 13 10 16 19 23 16 23 29 48 87 97 100 100 100 100
94 100 100 100 100 100 100 100 100 100 100 100 100 100 100 100 100 100 100 97 97 90 84 65 48 32 23 13 10 10 3 19 3 29 32 35 48 90 97 100 97 100 100
90 97 100 100 100 100 100 100 100 100 100 100 100 100 100 100 100 100 100 97 97 90 77 58 35 26 19 19 10 10 6 19 23 35 52 48 48 94 100 100 97 100 100
94 97 100 100 100 100 100 100 100 100 100 100 100 100 100 100 100 100 100 97 97 90 74 52 35 26 16 16 16 13 10 19 16 29 35 45 58 87 94 87 87 87 90
90 100 97 100 100 100 100 100 100 100 100 100 100 100 100 100 100 100 100 100 97 84 68 52 42 23 19 19 16 10 13 10 6 13 26 32 71 90 87 90 77 74 74
90 94 90 94 97 100 100 100 100 100 100 100 100 100 100 100 100 100 100 97 87 77 65 61 55 39 26 13 13 13 6 3 0 0 0 26 58 81 81 71 58 58 65
52 87 87 90 97 97 100 100 100 100 100 100 100 100 94 45 35 87 77 94 84 77 68 61 61 39 19 3 3 3 0 0 0 0 0 19 55 68 65 68 52 45 45
3 55 81 84 94 94 90 97 87 84 84 74 68 74 48 6 6 35 13 42 61 71 55 29 23 6 3 3 0 0 0 0 0 0 0 19 52 61 61 61 52 35 32
6 19 61 90 94 87 71 84 77 71 61 65 45 35 19 0 0 0 0 3 13 13 6 6 0 0 0 0 0 0 0 0 0 0 0 13 61 65 65 61 55 42 42
10 16 39 81 94 81 65 71 71 61 45 26 23 19 10 0 0 0 0 0 0 0 0 0 0 0 0 0 0 0 0 0 0 0 0 6 48 58 58 48 48 45 42
32 16 26 61 81 74 68 71 58 48 32 16 16 10 3 0 0 0 0 0 0 0 0 0 0 0 0 0 0 0 0 0 0 0 0 0 10 19 35 32 32 32 26
58 26 13 35 45 55 52 58 45 29 19 13 6 0 0 0 0 3 0 0 0 0 0 0 0 0 0 0 0 0 0 0 0 0 0 0 0 0 6 10 16 16 13
71 45 19 45 39 32 42 39 35 23 10 10 3 3 0 3 3 0 0 0 0 0 0 0 0 0 0 0 0 0 0 0 0 0 0 0 0 0 0 0 0 3 3
71 68 52 48 42 42 35 29 16 6 6 3 3 3 3 3 3 0 0 0 0 0 0 0 0 0 0 0 0 0 0 0 0 0 0 0 0 0 0 0 0 0 0
74 74 65 55 39 42 29 32 16 3 3 3 3 3 3 6 3 0 0 0 0 0 0 0 0 0 0 0 0 0 0 0 0 0 0 0 0 0 0 0 0 0 0
52 77 71 65 61 52 45 39 10 10 10 6 3 3 3 3 0 0 0 0 0 0 0 0 0 0 0 0 0 0 0 0 0 0 0 0 0 0 0 0 0 0 0
32 52 65 68 61 52 45 32 6 3 3 3 0 0 0 0 0 0 0 0 0 0 0 0 0 0 0 0 0 0 0 0 0 0 0 0 0 0 0 0 0 0 0
13 35 48 58 48 39 26 6 3 3 0 0 0 0 0 0 0 0 0 0 0 0 0 0 0 0 0 0 0 0 0 0 0 0 0 0 0 0 0 0 0 0 0
6 6 26 23 26 19 10 3 3 3 3 0 0 0 0 0 0 0 0 0 0 0 0 0 0 0 0 0 0 0 0 0 0 0 0 0 0 0 0 0 0 0 0
3 0 3 3 6 10 10 3 3 0 0 0 0 0 0 0 0 0 0 0 0 0 0 0 0 0 0 0 0 0 0 0 0 0 0 0 0 0 0 0 0 0 0
10 3 0 0 0 0 0 0 0 0 0 0 0 0 0 0 0 0 0 0 0 0 0 0 0 0 0 0 0 0 0 0 0 0 0 0 0 0 0 0 0 0 0

GEFSSE_con_cape1000_048.txt.gz
Probability
6 58 100 100 100 100 100 100 100 100 100 100 100 100 100 100 100 100 100 100 100 100 100 100 100 100 100 100 100 100 100 100 100 100 100 100 100 100 100 97 97 94 100
29 87 100 100 100 100 100 100 100 100 100 100 100 100 100 100 100 100 100 100 100 100 100 100 100 100 100 100 100 100 100 100 100 100 100 100 100 100 100 100 100 100 100
61 90 100 100 100 100 100 100 100 100 100 100 100 100 100 100 100 100 100 100 100 100 100 100 100 100 97 90 90 90 90 90 97 100 100 100 97 100 100 100 100 100 100
97 97 90 100 100 100 100 100 100 100 100 100 100 100 100 100 100 100 100 100 100 100 100 100 94 87 84 84 81 77 77 84 90 94 100 87 97 100 100 100 100 100 100
97 100 100 100 100 100 100 100 100 100 100 100 100 100 100 100 100 100 100 100 100 100 100 94 74 71 61 58 55 48 52 68 71 84 84 84 97 100 100 100 100 100 100
97 100 100 100 100 100 100 100 100 100 100 100 100 100 100 100 100 100 100 100 100 97 94 74 74 58 48 48 42 32 29 35 42 61 71 81 94 100 100 100 100 100 100
87 90 100 100 100 100 100 100 100 100 100 100 100 100 100 100 100 100 100 97 97 87 81 68 58 39 35 26 19 23 26 29 61 42 55 65 84 97 97 100 100 100 100
81 87 100 100 100 100 100 100 100 100 100 100 100 100 100 100 100 100 100 97 97 87 81 52 29 26 19 13 16 13 23 29 26 19 45 71 94 97 100 100 100 100 100
48 81 100 100 100 100 100 100 100 100 100 100 100 100 100 100 100 100 100 97 97 87 71 55 32 29 23 23 13 13 19 26 35 29 35 65 81 90 100 100 100 97 97
48 61 94 97 100 100 100 100 100 100 100 100 100 100 100 100 100 100 100 97 90 74 61 58 42 35 23 16 16 19 16 23 26 26 26 61 81 90 90 87 81 81 77
68 77 77 90 97 97 97 100 100 100 100 100 100 100 100 100 94 100 97 90 77 71 65 55 48 39 23 19 10 16 13 13 10 6 29 48 71 65 68 77 71 65 65
84 77 77 87 100 97 100 100 100 100 100 100 100 100 100 97 97 81 90 90 81 71 65 58 48 29 6 10 10 6 3 3 0 3 19 45 52 48 55 65 65 55 45
87 87 65 90 100 94 100 100 100 100 100 100 100 100 100 100 100 84 94 90 90 71 58 52 39 13 10 6 0 0 0 0 0 0 10 26 39 48 42 52 45 39 35
77 84 74 94 100 100 100 100 100 100 100 100 100 100 100 100 100 84 90 68 74 65 58 35 32 10 13 0 0 0 0 0 0 0 16 13 19 35 42 39 35 29 29
77 87 81 100 100 100 100 100 97 97 97 97 100 100 100 97 94 77 90 84 71 58 55 52 29 10 6 3 0 0 0 0 0 0 3 16 26 29 26 19 16 26 23
87 97 100 100 100 100 100 100 100 97 100 90 94 100 100 97 97 97 94 90 77 68 55 45 16 13 10 3 3 3 0 0 0 0 0 6 6 6 10 13 16 19 23
100 97 100 100 100 100 100 100 100 97 97 97 94 100 97 97 97 97 94 97 84 71 71 58 32 19 10 10 6 3 0 0 0 0 0 0 3 6 3 3 3 3 6
100 97 100 100 100 100 100 100 100 97 90 90 87 87 87 90 90 90 90 84 77 68 65 48 39 19 10 6 0 0 0 0 0 0 0 0 0 0 0 0 0 3 3
100 100 100 100 100 100 100 97 97 90 87 81 74 77 77 71 68 77 77 68 65 61 52 32 26 23 16 10 0 0 0 0 0 0 0 0 0 0 0 0 0 0 0
100 100 100 100 100 100 97 94 84 81 77 68 65 61 58 52 48 52 45 42 32 29 19 16 16 16 10 10 0 0 0 0 0 0 0 0 0 0 0 0 0 0 0
100 100 100 100 100 97 94 84 77 71 58 42 42 39 32 26 26 19 13 6 13 16 16 13 10 3 0 0 0 0 0 0 0 0 0 0 0 0 0 0 0 0 0
94 97 100 100 100 97 97 81 71 58 45 35 26 23 19 13 13 6 6 3 10 3 0 0 0 0 0 0 0 0 0 0 0 0 0 0 0 0 0 0 0 0 0
90 90 94 100 100 97 87 71 48 39 32 23 19 10 6 6 3 3 3 3 0 0 0 0 0 0 0 0 0 0 0 0 0 0 0 0 0 0 0 0 0 0 0
94 97 97 97 97 84 71 65 52 45 35 29 16 10 6 3 3 0 0 0 0 0 0 0 0 0 0 0 0 0 0 0 0 0 0 0 0 0 0 0 0 0 0
84 90 90 90 81 71 65 58 48 39 35 16 6 6 3 0 0 0 0 0 0 0 0 0 0 0 0 0 0 0 0 0 0 0 0 0 0 0 0 0 0 0 0
77 74 71 61 45 45 48 39 42 39 13 6 6 0 0 0 0 0 0 0 0 0 0 0 0 0 0 0 0 0 0 0 0 0 0 0 0 0 0 0 0 0 0

GEFSSE_con_cape1000_054.txt.gz
Probability
19 52 100 100 100 100 100 100 100 100 100 100 100 100 100 100 100 100 100 100 100 100 100 100 100 100 100 100 100 100 100 100 100 100 100 100 100 100 100 100 100 97 100
39 87 100 100 100 100 100 100 100 100 100 100 100 100 100 100 100 100 100 100 100 100 100 100 100 100 100 100 100 100 100 100 100 100 100 100 100 100 100 100 100 100 100
55 90 100 100 100 100 100 100 100 100 100 100 100 100 100 100 100 100 100 100 100 100 100 100 100 97 94 90 90 94 97 97 100 100 100 97 100 100 100 100 100 100 100
84 90 97 100 100 100 100 100 100 100 100 100 100 100 100 100 100 100 100 100 100 100 100 97 94 87 77 74 77 81 84 90 94 97 100 97 90 100 100 100 100 100 97
84 97 100 100 100 100 100 100 100 100 100 100 100 100 100 100 100 100 100 100 100 100 100 84 77 77 61 55 55 58 61 74 84 84 87 94 100 100 100 100 100 100 97
94 100 100 100 100 100 100 100 100 100 100 100 100 100 100 100 100 100 100 100 100 100 77 71 68 55 48 42 39 39 45 58 65 61 71 81 100 100 100 100 100 100 100
97 100 100 100 100 100 100 100 100 100 100 100 100 100 100 100 100 100 100 97 97 84 74 65 55 42 32 23 23 23 29 55 45 39 48 81 100 100 100 100 100 94 94
97 97 100 100 100 100 100 100 100 100 100 100 100 100 100 100 100 100 100 97 90 81 68 52 39 29 23 10 6 16 32 45 29 26 58 94 100 100 100 100 97 94 90
97 97 100 100 100 100 100 100 100 100 100 100 100 100 100 100 100 100 100 97 90 77 65 48 32 26 23 13 16 16 39 52 35 32 61 97 100 100 100 97 97 94 94
90 97 94 97 100 100 100 100 100 100 100 100 100 100 100 100 100 100 100 97 90 77 61 48 39 29 26 23 29 19 45 42 10 32 45 81 90 97 94 87 87 84 77
81 94 87 100 100 100 100 100 100 100 100 100 100 100 100 100 100 100 100 97 90 77 68 58 52 48 39 35 39 45 32 13 6 19 45 74 87 87 71 77 74 71 61
65 94 94 100 100 100 100 100 100 100 100 100 100 100 100 100 100 97 97 100 90 74 74 71 58 58 45 26 23 29 13 6 13 19 55 90 84 61 55 55 71 61 55
55 84 94 100 100 100 100 100 100 100 100 100 100 100 100 97 100 100 100 97 97 81 71 74 65 48 35 29 16 10 3 3 3 19 55 84 71 65 58 58 58 55 48
61 61 84 100 100 100 100 100 100 100 100 100 100 97 100 100 97 97 100 100 100 87 90 77 68 45 42 23 13 6 3 3 0 13 42 71 58 52 45 42 45 48 52
81 74 90 100 100 100 100 100 100 100 97 97 97 97 97 97 97 97 97 97 97 90 90 77 68 68 32 19 10 6 0 0 0 10 26 55 52 48 45 39 42 39 42
90 94 97 100 100 100 100 100 100 97 97 97 97 97 97 97 97 97 97 97 97 100 87 81 68 52 45 42 23 10 3 0 3 3 13 35 39 39 45 35 29 35 32
100 100 100 100 100 100 100 100 100 97 97 97 97 97 97 97 97 97 94 94 94 94 97 87 58 52 35 26 23 10 13 13 10 0 10 16 13 16 16 13 13 13 10
100 100 100 100 100 100 100 100 100 97 97 97 97 97 97 97 97 97 94 90 87 87 81 58 45 26 23 16 16 16 6 16 13 3 0 0 3 3 3 6 6 6 6
100 100 100 100 100 100 100 100 100 100 97 97 97 94 90 90 84 81 84 81 77 61 52 29 29 19 13 6 3 3 3 3 6 0 0 0 0 0 0 0 3 0 0
97 100 100 100 100 100 100 100 100 97 97 94 87 81 74 71 61 68 61 58 48 45 32 16 13 10 6 3 0 0 0 0 0 3 3 0 0 0 0 0 0 0 0
94 97 100 100 100 100 100 100 97 97 90 81 71 71 58 55 55 55 48 45 35 32 10 3 3 3 6 3 0 0 0 0 0 0 0 0 0 0 0 0 0 0 0
97 97 97 100 100 100 100 97 94 94 71 61 55 55 55 48 45 32 29 26 23 13 10 3 0 0 0 0 0 0 0 0 0 0 0 0 0 0 0 0 0 0 0
94 94 94 94 97 97 97 94 87 71 58 55 48 42 39 32 29 19 19 19 16 10 6 10 0 0 0 0 0 0 0 0 0 0 0 0 0 0 0 0 0 0 0
90 90 94 94 94 94 94 87 74 65 52 52 42 35 19 10 10 6 10 6 10 6 6 6 0 0 0 0 0 0 0 0 0 0 0 0 0 0 0 0 0 0 0
77 74 81 81 77 81 77 68 61 48 45 45 35 19 10 6 3 3 3 3 3 0 0 0 0 0 0 0 0 0 0 0 0 0 0 0 0 0 0 0 0 0 0
45 48 52 52 45 55 52 48 42 42 39 29 19 10 10 6 3 0 0 0 0 0 0 0 0 0 0 0 0 0 0 0 0 0 0 0 0 0 0 0 0 0 0

GEFSSE_con_cape1000_060.txt.gz
Probability
74 100 100 100 100 100 100 100 100 100 100 100 100 100 100 100 100 100 100 100 100 100 100 100 100 100 100 100 100 100 100 100 100 100 100 100 100 100 100 100 100 100 100
90 100 100 100 100 100 100 100 100 100 100 100 100 100 100 100 100 100 100 100 100 100 100 100 100 97 97 97 97 97 100 100 100 100 100 100 100 100 100 100 100 100 100
90 100 100 100 100 100 100 100 100 100 100 100 100 100 100 100 100 100 100 100 100 100 100 97 97 90 90 90 94 94 97 97 97 97 97 90 100 100 100 100 100 100 100
90 100 100 100 100 100 100 100 100 100 100 100 100 100 100 100 100 100 100 100 100 100 97 94 87 84 81 77 81 90 87 90 90 84 58 84 97 100 100 100 100 100 100
90 100 100 100 100 100 100 100 100 100 100 100 100 100 100 100 100 100 100 100 100 97 94 84 65 65 65 61 61 68 74 71 74 48 29 42 81 100 100 100 100 100 100
94 100 100 100 100 100 100 100 100 100 100 100 100 100 100 100 100 100 100 100 100 97 81 68 61 61 55 35 39 45 55 55 35 13 32 48 74 97 100 100 100 100 100
94 100 100 100 100 100 100 100 100 100 100 100 100 100 100 100 100 100 100 100 94 77 74 65 55 48 35 26 26 29 45 45 10 3 13 39 61 84 100 100 100 100 100
90 100 100 100 100 100 100 100 100 100 100 100 100 100 100 100 100 100 100 97 87 74 68 55 48 39 32 23 23 29 35 26 23 3 10 26 48 77 100 100 100 100 100
77 100 100 100 100 100 100 100 100 100 100 100 100 100 100 100 100 100 100 94 87 81 65 58 42 39 29 29 32 42 39 32 3 0 26 26 65 87 100 100 100 100 100
61 94 100 100 100 100 100 100 100 100 100 100 100 100 100 100 100 100 100 94 90 81 68 68 58 55 52 45 42 45 39 32 0 6 16 42 71 81 94 97 97 100 97
35 74 81 94 97 100 100 100 100 100 100 100 100 100 100 100 100 100 97 100 90 84 74 74 68 71 58 45 45 52 29 3 0 6 10 61 77 84 90 94 97 94 90
26 26 65 77 84 90 94 100 100 100 100 100 100 100 97 71 71 100 100 100 97 94 81 74 77 71 45 26 16 19 16 3 3 6 13 71 81 87 87 87 84 87 84
23 16 35 39 55 55 74 97 97 97 94 87 90 97 52 16 19 71 68 97 90 87 68 65 68 52 32 19 3 0 0 0 3 6 32 84 87 84 81 74 77 74 68
45 29 29 32 29 35 68 74 74 71 65 55 52 58 23 3 3 19 23 61 68 55 29 13 16 26 13 10 3 3 0 0 0 6 23 84 87 77 65 61 61 55 58
65 48 42 39 35 42 61 48 58 55 52 26 32 39 13 3 3 10 16 29 26 16 13 10 10 6 6 6 6 3 3 0 0 0 10 65 61 58 58 45 45 48 42
71 61 68 65 52 68 68 55 55 55 52 19 29 58 26 13 13 19 13 16 13 10 13 6 6 6 6 6 6 0 0 0 0 3 3 26 45 45 48 42 39 32 32
58 65 71 84 74 77 77 68 71 68 71 35 35 61 48 23 10 13 10 13 10 10 10 6 3 3 3 0 0 0 0 0 0 0 0 3 3 26 32 32 39 29 29
35 48 84 94 90 90 94 77 81 84 84 61 52 58 55 39 23 6 10 6 6 0 0 0 0 0 0 0 0 0 0 0 0 0 0 0 0 0 3 10 13 10 13
16 52 81 94 97 97 87 84 77 77 77 61 55 45 42 42 26 10 3 3 0 0 0 0 0 0 0 0 0 0 0 0 0 0 0 0 0 0 0 0 0 0 0
42 55 71 90 94 90 84 84 81 61 52 39 35 39 23 32 26 10 3 0 0 0 0 0 0 0 0 0 0 0 0 0 0 0 0 0 0 0 0 0 0 0 0
35 48 61 87 97 84 87 81 74 61 48 32 29 19 23 26 10 6 3 0 0 0 0 0 0 0 0 0 0 0 0 0 0 0 0 0 0 0 0 0 0 0 0
32 42 65 84 90 84 81 71 55 45 23 13 19 13 16 13 6 10 3 0 0 0 0 0 0 0 0 0 0 0 0 0 0 0 0 0 0 0 0 0 0 0 0
26 42 55 65 77 84 77 55 48 26 16 16 13 10 3 10 10 3 3 0 0 0 0 0 0 0 0 0 0 0 0 0 0 0 0 0 0 0 0 0 0 0 0
29 39 45 61 65 65 58 48 42 35 19 10 6 0 0 3 0 0 0 0 0 0 0 0 0 0 0 0 0 0 0 0 0 0 0 0 0 0 0 0 0 0 0
23 29 35 32 42 32 26 29 23 13 10 3 0 0 0 0 0 0 0 0 0 0 0 0 0 0 0 0 0 0 0 0 0 0 0 0 0 0 0 0 0 0 0
13 13 16 10 10 10 6 10 10 10 3 3 0 0 0 0 0 0 0 0 0 0 0 0 0 0 0 0 0 0 0 0 0 0 0 0 0 0 0 0 0 0 0

GEFSSE_con_cape1000_066.txt.gz
Probability
32 100 100 100 100 100 100 100 100 100 100 100 100 100 100 100 100 100 100 100 100 100 100 100 100 100 100 100 100 100 100 100 100 100 100 100 100 100 100 100 100 97 100
55 100 100 100 100 100 100 100 100 100 100 100 100 100 100 100 100 100 100 100 100 100 100 100 100 100 100 100 100 100 100 100 100 100 100 100 100 100 100 100 100 100 100
97 100 100 100 100 100 100 100 100 100 100 100 100 100 100 100 100 100 100 100 100 100 100 100 97 97 97 100 100 100 100 100 100 100 100 100 100 100 100 100 100 100 100
100 100 100 100 100 100 100 100 100 100 100 100 100 100 100 100 100 100 100 100 100 100 97 97 97 97 97 97 97 100 100 100 100 100 94 97 100 100 100 100 100 100 100
100 100 100 100 100 100 100 100 100 100 100 100 100 100 100 100 100 100 100 100 100 97 94 87 87 84 81 84 81 81 84 94 84 71 61 94 97 100 100 100 100 100 100
100 100 100 100 100 100 100 100 100 100 100 100 100 100 100 100 100 100 100 100 97 94 87 81 74 71 71 68 71 74 74 71 48 29 52 87 94 100 100 100 100 100 100
90 100 100 100 100 100 100 100 100 100 100 100 100 100 100 100 100 100 100 100 94 87 77 71 65 65 55 48 45 55 58 52 0 23 48 71 90 97 100 100 100 100 100
87 100 100 100 100 100 100 100 100 100 100 100 100 100 100 100 100 100 100 97 94 77 77 61 55 42 42 39 42 45 48 45 23 6 29 52 77 97 100 100 100 100 100
94 100 100 100 100 100 100 100 100 100 100 100 100 100 100 100 100 100 100 97 90 81 77 58 52 42 39 39 32 39 42 52 10 6 10 35 74 97 97 97 97 97 100
97 97 97 100 100 100 100 100 100 100 100 100 100 100 100 100 100 100 100 97 84 81 71 65 55 48 48 48 48 48 45 48 6 3 16 39 74 97 100 100 100 100 100
97 97 97 100 100 100 100 100 100 100 100 100 100 100 100 100 100 100 100 94 81 77 74 68 68 65 58 55 52 52 42 13 3 3 16 45 77 94 97 94 94 94 97
84 97 87 94 97 100 100 100 100 100 100 100 100 100 97 77 74 94 90 97 90 84 84 81 74 71 55 29 26 23 10 10 3 3 13 48 71 87 81 90 87 84 81
42 84 87 81 90 90 87 97 94 90 90 90 94 94 65 32 39 68 52 77 84 84 65 55 52 39 32 26 16 6 0 0 0 3 19 58 77 81 81 81 84 68 71
19 52 81 81 81 74 61 84 77 77 81 71 61 52 29 13 10 13 6 16 55 45 45 42 13 16 16 10 10 6 3 0 0 0 23 68 77 84 77 65 68 65 65
10 23 48 65 58 45 29 65 65 52 65 52 35 39 13 10 0 0 0 0 10 26 29 16 10 6 6 6 6 6 3 3 3 6 13 58 74 87 74 61 52 58 55
10 10 19 39 39 26 19 45 45 42 39 29 19 23 16 3 0 0 0 0 0 3 6 10 6 6 6 6 6 0 0 0 0 6 10 32 61 68 65 61 52 52 45
23 6 10 16 16 19 16 16 16 23 19 16 13 16 13 3 0 0 0 0 0 3 3 3 3 0 0 0 0 0 0 0 0 0 0 3 16 23 45 52 55 39 29
29 23 16 19 13 10 3 6 13 10 13 13 10 6 3 3 3 0 0 0 0 0 0 0 0 0 0 0 0 0 0 0 0 0 0 0 0 3 10 19 19 19 16
39 29 19 10 13 13 3 3 10 13 6 6 0 0 0 3 3 0 0 0 0 0 0 0 0 0 0 0 0 0 0 0 0 0 0 0 0 0 0 0 6 13 10
35 29 29 29 13 13 16 16 19 16 6 6 0 0 0 3 0 0 0 0 0 0 0 0 0 0 0 0 0 0 0 0 0 0 0 0 0 0 0 0 0 0 0
26 29 35 39 39 29 23 26 26 19 13 0 0 3 0 0 0 0 0 0 0 0 0 0 0 0 0 0 0 0 0 0 0 0 0 0 0 0 0 0 0 0 0
23 23 39 42 35 48 45 29 13 13 13 6 3 0 0 0 0 0 0 0 0 0 0 0 0 0 0 0 0 0 0 0 0 0 0 0 0 0 0 0 0 0 0
32 26 32 35 35 35 23 13 10 3 3 3 3 3 3 0 0 0 0 0 0 0 0 0 0 0 0 0 0 0 0 0 0 0 0 0 0 0 0 0 0 0 0
19 23 16 26 26 19 13 16 10 16 13 6 6 3 0 0 0 0 0 0 0 0 0 0 0 0 0 0 0 0 0 0 0 0 0 0 0 0 0 0 0 0 0
13 10 6 3 10 10 10 10 10 13 6 6 0 0 0 0 0 0 0 0 0 0 0 0 0 0 0 0 0 0 0 0 0 0 0 0 0 0 0 0 0 0 0
0 3 3 0 3 3 0 0 3 6 6 0 0 0 0 0 0 0 0 0 0 0 0 0 0 0 0 0 0 0 0 0 0 0 0 0 0 0 0 0 0 0 0

GEFSSE_con_cape1000_072.txt.gz
Probability
84 100 100 100 100 100 100 100 100 100 100 100 100 100 100 100 100 100 100 100 100 100 100 100 100 100 100 100 100 100 100 100 100 100 100 100 100 100 100 100 100 97 100
100 97 100 100 100 100 100 100 100 100 100 100 100 100 100 100 100 100 100 100 100 100 100 100 100 100 100 100 100 100 100 100 100 100 100 100 100 100 100 100 100 100 100
100 97 100 100 100 100 100 100 100 100 100 100 100 100 100 100 100 100 100 100 100 100 100 100 100 100 100 100 100 100 100 100 100 100 100 97 100 100 100 97 100 100 100
100 97 87 100 100 100 100 100 100 100 100 100 100 100 100 100 100 100 100 100 100 100 100 100 100 100 100 100 100 100 100 100 100 100 94 77 94 100 100 100 100 100 100
100 100 100 100 100 100 100 100 100 100 100 100 100 100 100 100 100 100 100 100 100 100 100 97 97 100 97 97 97 97 97 100 100 100 74 77 97 100 100 100 100 100 100
100 100 100 100 100 100 100 100 100 100 100 100 100 100 100 100 100 100 100 100 100 97 97 87 87 84 84 81 77 81 84 94 97 74 77 81 97 100 100 100 100 100 100
100 100 100 100 100 100 100 100 100 100 100 100 100 100 100 100 100 100 100 100 97 87 81 81 77 74 71 68 71 74 74 84 84 58 74 77 100 100 100 100 100 100 100
100 100 100 100 100 100 100 100 100 100 100 100 100 100 100 100 100 100 100 100 94 84 81 68 52 48 48 52 61 61 65 65 58 48 65 90 97 94 100 100 100 97 100
94 100 100 100 100 100 100 100 100 100 100 100 100 100 100 100 100 100 100 94 90 81 68 52 45 35 35 39 42 52 58 61 58 55 45 87 94 97 100 100 100 100 97
90 100 100 100 100 97 97 100 100 100 100 100 100 100 100 100 100 97 97 94 87 81 65 58 55 42 48 45 42 39 48 48 42 32 39 84 90 94 97 97 97 94 94
87 100 100 97 100 100 97 100 100 100 100 100 100 100 100 87 81 90 94 90 84 74 74 68 68 61 52 45 48 52 39 23 13 16 42 81 90 90 100 100 97 94 94
90 94 100 100 100 100 100 100 100 100 100 100 100 97 94 90 90 61 90 97 87 87 77 77 71 68 55 52 48 32 16 16 3 10 48 71 77 97 94 97 97 94 87
94 90 94 100 100 100 100 100 100 100 100 97 97 100 100 97 87 58 87 97 94 87 84 81 77 58 45 42 45 10 13 10 0 0 48 77 74 74 84 87 87 81 81
84 90 94 100 100 100 100 100 100 100 100 97 97 100 90 90 81 58 81 55 81 84 81 74 61 52 45 35 26 6 6 10 6 3 61 74 74 71 74 84 87 77 74
81 90 87 100 100 100 100 100 100 100 97 90 97 94 87 65 68 58 77 94 77 71 77 77 55 55 45 29 19 10 13 10 13 10 45 68 65 74 77 77 71 68 61
81 87 94 97 100 100 100 100 100 100 100 87 87 90 81 74 65 87 90 100 90 84 81 77 65 68 52 32 29 29 35 23 32 45 35 58 61 61 68 77 61 58 48
90 94 97 97 100 100 100 100 100 97 97 84 84 90 94 77 94 94 81 100 97 97 94 87 87 77 68 48 48 52 42 42 39 48 35 39 42 48 58 55 55 45 32
94 97 97 97 97 100 100 100 100 90 90 90 90 87 87 81 81 97 94 87 90 87 87 87 81 74 58 52 48 42 26 45 26 35 32 35 32 16 26 23 29 39 29
100 100 100 97 97 100 100 97 97 94 94 90 84 84 87 84 84 87 90 87 87 81 81 65 52 58 61 48 39 35 16 13 19 10 16 19 19 19 13 10 13 10 10
97 100 100 100 100 100 97 94 94 94 87 87 84 87 77 81 77 84 81 77 68 74 68 48 39 39 35 35 10 3 10 3 6 10 6 6 6 6 6 3 6 3 3
94 97 97 100 100 97 94 94 90 87 84 77 71 68 61 65 68 68 58 55 52 45 35 26 19 13 13 3 3 10 3 0 0 0 3 0 0 3 3 3 0 3 0
87 84 94 94 97 94 94 94 84 81 55 52 52 52 42 42 42 39 39 23 23 23 19 26 16 10 6 3 3 3 0 0 0 0 0 0 0 0 0 0 0 0 0
71 74 81 84 84 87 87 84 77 61 42 29 29 19 23 16 19 23 13 13 13 13 10 6 6 3 3 0 0 0 0 0 0 0 0 0 0 0 0 0 0 0 0
52 61 65 74 68 74 77 81 68 58 35 23 19 13 10 6 3 3 3 6 6 3 3 3 0 0 0 0 3 0 0 0 0 0 0 0 0 0 0 0 0 0 0
32 35 45 52 52 58 65 58 55 42 23 13 13 6 3 3 3 3 0 0 0 0 0 0 0 0 0 0 0 0 0 0 0 0 0 0 0 0 0 0 0 0 0
10 16 23 29 29 32 32 29 23 16 13 10 6 6 3 0 0 0 0 0 0 0 0 0 0 0 0 0 0 0 0 0 0 0 0 0 0 0 0 0 0 0 0

GEFSSE_con_cape1000_078.txt.gz
Probability
97 100 100 100 100 100 100 100 100 100 100 100 100 100 100 100 100 100 100 100 100 100 100 100 100 100 100 100 100 100 100 100 100 100 100 100 100 100 100 100 100 100 100
100 100 100 100 100 100 100 100 100 100 100 100 100 100 100 100 100 100 100 100 100 100 100 100 100 100 100 100 100 100 100 100 100 100 100 100 100 100 100 100 100 100 100
100 97 100 100 100 100 100 100 100 100 100 100 100 100 100 100 100 100 100 100 100 100 100 100 100 100 100 100 100 100 100 100 100 100 100 100 100 97 97 100 100 100 100
100 97 100 100 100 100 100 100 100 100 100 100 100 100 100 100 100 100 100 100 100 100 100 100 100 100 100 100 100 100 100 100 100 100 97 94 90 97 97 97 100 100 100
100 100 100 100 100 100 100 100 100 100 100 100 100 100 100 100 100 100 100 100 100 100 100 100 100 100 97 97 94 94 94 100 100 100 94 97 100 100 100 100 100 100 100
100 100 100 100 100 100 100 100 100 100 100 100 100 100 100 100 100 100 100 100 100 97 94 94 90 94 94 90 90 94 97 100 100 90 87 94 100 100 100 97 100 100 100
100 100 100 100 100 100 100 100 100 100 100 100 100 100 100 100 100 100 100 97 94 90 87 84 81 77 74 74 71 68 87 97 94 77 81 90 100 100 100 97 100 100 97
100 100 100 100 100 100 100 100 100 100 100 100 100 100 100 100 100 100 100 97 87 87 81 71 68 61 52 58 65 65 68 77 77 61 90 97 100 100 100 100 100 97 97
100 100 100 100 100 100 100 100 100 100 100 100 100 100 100 100 100 100 100 87 87 81 65 55 45 39 39 39 35 58 71 77 68 42 77 97 100 100 100 100 100 97 97
100 100 97 100 100 100 100 100 100 100 100 100 100 100 100 100 100 100 97 94 81 74 52 42 35 39 35 39 42 45 61 71 26 26 68 84 97 100 100 100 94 94 94
100 97 84 94 100 94 94 100 100 100 100 100 100 100 100 97 97 97 97 90 77 71 61 58 52 52 55 58 61 68 65 19 13 26 74 94 97 90 94 94 87 84 77
97 94 84 97 97 97 87 97 100 87 100 94 100 100 100 100 100 100 100 100 94 84 77 74 77 74 65 42 45 77 32 19 10 19 77 100 94 90 84 87 87 84 81
94 100 94 100 100 100 100 90 100 100 100 100 100 100 100 100 100 100 100 94 97 90 74 81 74 68 52 45 61 48 35 13 10 23 74 100 94 90 84 90 90 87 84
90 97 100 100 100 100 100 100 100 100 100 100 100 100 100 100 100 100 100 100 97 90 94 87 84 74 71 58 55 39 23 16 16 45 77 87 84 84 84 81 81 84 84
90 94 100 100 100 100 100 100 100 100 100 100 100 100 97 97 97 97 100 100 94 94 94 94 90 81 71 58 58 39 26 32 26 65 65 90 90 84 81 77 81 77 77
94 97 100 100 100 100 100 100 100 100 100 100 100 97 94 97 97 100 100 100 100 97 94 94 94 87 87 84 71 58 55 58 68 65 58 71 81 81 77 77 74 71 74
97 100 100 100 100 100 100 100 100 100 100 100 97 97 97 94 100 100 100 97 94 94 97 97 94 90 84 74 71 65 48 65 42 48 61 55 55 58 71 68 71 74 68
94 100 100 97 100 100 100 100 100 100 100 100 97 97 97 94 90 90 90 94 94 94 90 90 77 71 68 58 48 39 35 48 42 42 39 45 42 26 39 48 48 58 42
100 100 100 100 100 100 100 100 94 94 90 90 94 90 90 84 87 87 87 87 87 84 77 77 77 68 55 39 23 35 35 35 32 16 26 19 10 16 13 10 16 19 16
97 100 100 100 97 97 94 94 94 90 90 87 87 87 87 87 87 84 74 77 77 68 71 71 61 61 48 23 10 13 23 23 19 16 10 10 0 0 0 3 3 6 10
90 90 90 94 94 90 94 94 94 87 84 77 68 55 58 58 58 68 68 55 55 45 45 39 39 16 10 10 10 10 10 10 3 13 16 3 0 0 0 0 0 0 0
77 81 81 84 84 87 90 87 84 84 77 58 45 35 35 39 42 35 39 35 29 35 26 26 26 13 10 6 3 3 3 3 0 0 0 0 0 0 0 0 0 0 0
58 65 71 74 74 77 84 87 87 77 58 35 26 19 13 13 16 16 19 16 16 13 13 3 10 3 3 0 0 0 0 0 0 0 0 0 0 0 0 0 0 0 0
45 45 45 55 61 65 81 84 81 71 42 19 13 10 6 6 6 6 6 3 3 3 0 0 0 0 0 0 0 0 0 0 0 0 0 0 0 0 0 0 0 0 0
26 26 32 32 39 39 45 65 52 29 13 13 10 6 3 3 3 3 3 3 0 0 0 0 0 0 0 0 0 0 0 0 0 0 0 0 0 0 0 0 0 0 0
13 19 26 16 16 16 23 29 16 13 10 10 6 3 3 3 3 3 0 0 0 0 0 0 0 0 0 0 0 0 0 0 0 0 0 0 0 0 0 0 0 0 0

GEFSSE_con_cape1000_084.txt.gz
Probability
97 100 100 100 100 100 100 100 100 100 100 100 100 100 100 100 100 100 100 100 100 100 100 100 100 100 100 100 100 100 100 100 100 100 100 100 100 100 100 100 100 100 100
94 100 100 100 100 100 100 100 100 100 100 100 100 100 100 100 100 100 100 100 100 100 100 100 100 100 100 100 100 100 100 100 100 100 100 100 100 100 100 100 100 100 100
100 100 100 100 100 100 100 100 100 100 100 100 100 100 100 100 100 100 100 100 100 100 100 100 100 100 100 100 100 100 100 100 100 100 100 94 100 100 100 100 100 100 100
100 100 100 100 100 100 100 100 100 100 100 100 100 100 100 100 100 100 100 100 100 100 100 100 100 100 100 100 100 100 100 100 100 100 84 94 97 100 100 100 100 100 100
97 97 100 100 100 100 100 100 100 100 100 100 100 100 100 100 100 100 100 100 100 100 100 100 94 94 94 94 94 100 100 100 100 87 74 81 94 100 100 100 100 100 100
90 94 100 100 100 100 100 100 100 100 100 100 100 100 100 100 100 100 100 100 100 100 100 94 94 94 94 94 94 97 100 97 84 45 68 84 94 97 100 100 100 100 100
90 97 100 100 100 100 100 100 100 100 100 100 100 100 100 100 100 100 100 100 97 94 94 81 77 77 77 74 81 90 94 90 55 26 48 74 94 97 100 100 100 100 100
90 100 100 100 100 100 100 100 100 100 100 100 100 100 100 100 100 100 100 100 94 90 81 71 68 68 55 58 68 71 84 87 52 45 52 48 84 97 100 100 100 100 100
97 100 100 100 100 100 100 100 100 100 100 100 100 100 100 100 100 100 100 94 90 84 77 74 61 61 55 55 52 65 71 68 23 16 35 48 90 97 100 100 100 100 100
97 100 100 100 100 100 100 100 100 100 100 100 100 100 100 100 100 100 100 97 87 87 74 74 68 61 58 52 48 52 58 42 3 3 6 39 81 90 97 100 97 97 94
100 100 100 100 100 100 100 100 100 100 100 100 100 100 100 100 100 100 97 97 94 87 81 77 68 65 68 65 77 81 61 16 3 0 0 42 77 90 94 97 94 90 94
100 97 97 97 97 100 100 100 100 100 100 100 100 100 94 74 77 97 97 100 97 97 90 87 77 71 65 35 23 48 32 16 3 0 0 55 90 94 94 90 94 94 94
97 97 94 90 90 84 90 97 90 90 90 74 90 90 65 39 42 77 71 100 94 94 65 61 71 61 42 16 10 3 6 10 0 3 10 77 84 94 90 87 97 90 84
77 87 87 84 71 65 71 71 55 55 55 39 52 52 23 16 32 29 42 58 48 45 29 13 6 19 19 13 10 3 0 0 0 0 13 77 81 84 87 90 81 81 87
65 74 84 61 58 52 48 52 55 42 35 26 45 42 6 16 29 23 26 23 13 10 3 6 6 10 6 3 3 3 0 3 6 3 16 77 77 87 90 74 71 77 81
42 55 58 48 45 48 48 52 52 39 26 29 61 58 39 23 16 16 13 10 6 13 13 6 6 3 3 3 3 3 0 0 3 6 13 29 55 68 68 52 55 61 61
39 48 58 58 48 45 45 52 61 68 39 26 55 55 52 32 19 16 19 13 3 3 13 10 6 6 6 3 3 0 0 0 0 0 3 3 16 32 45 45 55 55 48
48 55 55 71 65 61 48 48 68 61 52 48 48 39 32 35 19 16 19 23 6 10 6 6 3 0 0 0 0 0 0 0 0 0 3 3 3 3 13 19 32 32 35
35 48 55 74 74 61 55 55 61 58 45 45 42 39 42 35 29 19 23 10 6 6 6 6 3 0 3 3 3 0 0 0 0 0 0 0 0 0 0 3 13 19 19
32 45 61 55 52 58 58 58 48 35 35 23 19 19 19 26 29 13 6 6 3 3 3 3 3 0 0 0 0 0 0 0 0 0 0 0 0 0 0 0 0 0 16
35 39 39 48 55 55 65 48 35 26 23 19 16 13 10 13 13 6 10 3 3 3 3 3 0 0 0 0 0 0 0 0 0 0 0 0 0 0 0 0 0 0 0
23 26 26 32 39 48 42 32 23 23 19 13 6 3 3 6 6 3 0 0 0 0 0 0 0 0 0 0 0 0 0 0 0 0 0 0 0 0 0 0 0 0 0
16 19 23 23 26 26 19 19 23 19 13 10 3 3 3 3 3 3 0 0 0 0 0 0 0 0 0 0 0 0 0 0 0 0 0 0 0 0 0 0 0 0 0
16 19 19 23 23 19 13 6 13 16 10 6 3 3 3 3 3 3 3 0 0 0 0 0 0 0 0 0 0 0 0 0 0 0 0 0 0 0 0 0 0 0 0
10 10 10 10 13 10 10 6 3 0 3 3 3 3 3 3 3 3 0 0 0 0 0 0 0 0 0 0 0 0 0 0 0 0 0 0 0 0 0 0 0 0 0
10 10 10 10 10 6 0 0 0 0 0 3 3 3 0 0 0 0 0 0 0 0 0 0 0 0 0 0 0 0 0 0 0 0 0 0 0 0 0 0 0 0 0

GEFSSE_con_cape1000_090.txt.gz
Probability
77 97 100 100 100 100 100 100 100 100 100 100 100 100 100 100 100 100 100 100 100 100 100 100 100 100 100 100 100 100 100 100 100 100 100 100 100 100 100 100 100 100 100
87 97 100 100 100 100 100 100 100 100 100 100 100 100 100 100 100 100 100 100 100 100 100 100 100 100 100 100 100 100 100 100 100 100 100 100 100 100 100 100 100 100 100
90 97 100 100 100 100 100 100 100 100 100 100 100 100 100 100 100 100 100 100 100 100 100 100 100 100 100 100 100 100 100 100 100 100 100 100 100 100 100 100 100 100 100
94 100 100 100 100 100 100 100 100 100 100 100 100 100 100 100 100 100 100 100 100 100 100 100 100 100 100 100 100 100 100 100 100 100 94 100 100 100 100 100 100 100 100
97 100 100 100 100 100 100 100 100 100 100 100 100 100 100 100 100 100 100 100 100 100 100 100 97 97 97 97 97 97 97 97 97 90 84 90 97 100 100 100 100 100 100
100 100 100 100 100 100 100 100 100 100 100 100 100 100 100 100 100 100 100 100 100 100 100 94 94 94 94 94 97 97 97 94 65 61 77 84 97 100 100 100 100 100 100
97 100 100 100 100 100 100 100 100 100 100 100 100 100 100 100 100 100 100 100 100 100 97 94 87 90 87 90 97 97 97 90 19 61 68 84 90 100 100 100 100 100 100
97 100 100 100 100 100 100 100 100 100 100 100 100 100 100 100 100 100 100 100 97 94 90 74 74 74 77 74 71 84 81 71 48 52 71 84 84 94 100 100 100 100 100
97 100 100 100 100 100 100 100 100 100 100 100 100 100 100 100 100 100 100 97 94 84 74 71 71 68 61 61 55 58 71 68 10 29 58 61 84 94 100 100 100 100 100
100 100 100 100 100 100 100 100 100 100 100 100 100 100 100 100 100 97 100 94 84 77 77 74 65 68 61 68 71 68 65 48 6 10 32 42 84 94 100 100 100 100 100
97 97 100 100 100 100 100 100 100 100 100 100 100 100 100 100 97 97 97 90 81 81 74 74 74 77 77 77 74 74 55 16 3 3 6 32 74 94 97 100 97 97 94
94 94 94 97 100 100 100 100 100 100 100 100 100 100 94 77 84 94 87 90 90 84 87 87 81 74 55 26 23 23 10 6 3 3 6 29 84 87 94 97 97 90 90
94 94 94 97 97 97 94 100 100 97 97 97 100 94 74 52 48 61 55 68 77 84 65 58 52 42 19 13 13 16 10 10 3 6 3 48 84 87 90 94 84 87 87
90 90 94 90 90 84 90 94 94 90 87 77 77 71 48 39 35 32 16 32 42 42 45 29 23 19 10 10 10 10 6 10 10 3 6 48 77 74 81 77 74 74 77
74 77 81 84 74 71 77 81 84 71 68 58 61 61 42 35 32 23 6 16 29 19 19 13 13 10 10 10 10 10 3 3 3 0 3 39 74 77 81 68 68 61 58
65 71 74 74 61 65 65 61 55 52 48 45 45 48 45 19 16 10 3 10 10 10 10 6 10 3 3 6 6 6 6 6 0 0 3 13 32 52 52 58 61 48 45
48 52 58 61 58 42 48 39 35 35 26 26 26 26 39 13 6 3 0 6 10 3 3 6 3 3 3 3 3 6 3 3 0 0 0 3 13 29 32 39 35 35 32
42 48 45 58 42 35 32 29 26 23 13 6 13 16 23 16 3 6 3 6 6 3 3 3 3 3 3 3 3 0 0 0 0 0 0 0 3 3 16 19 16 16 19
26 29 29 29 26 29 23 19 13 13 6 6 6 3 6 16 6 6 6 6 3 3 3 3 3 3 3 0 0 0 0 0 0 0 0 0 0 0 0 0 6 10 6
26 26 29 19 16 16 13 10 3 6 0 0 0 0 3 3 10 3 6 3 3 3 3 3 3 0 0 0 0 0 0 0 0 0 0 0 0 0 0 0 0 0 3
19 19 19 16 6 3 3 3 0 0 0 0 0 0 0 0 3 3 0 0 0 0 0 0 0 0 0 0 0 0 0 0 0 0 0 0 0 0 0 0 0 0 0
16 6 10 10 10 3 3 0 0 0 0 0 0 0 0 3 0 0 0 0 0 0 0 0 0 0 0 0 0 0 0 0 0 0 0 0 0 0 0 0 0 0 0
13 10 16 13 6 6 3 0 0 0 0 0 0 0 0 3 0 0 0 0 0 0 0 0 0 0 0 0 0 0 0 0 0 0 0 0 0 0 0 0 0 0 0
10 10 13 6 6 3 0 0 0 3 3 0 0 0 0 0 3 0 0 0 0 0 0 0 0 0 0 0 0 0 0 0 0 0 0 0 0 0 0 0 0 0 0
10 6 13 3 6 3 3 0 0 0 0 0 0 0 0 0 0 0 0 0 0 0 0 0 0 0 0 0 0 0 0 0 0 0 0 0 0 0 0 0 0 0 0
10 10 13 10 10 3 3 0 0 0 0 0 0 0 0 0 0 0 0 0 0 0 0 0 0 0 0 0 0 0 0 0 0 0 0 0 0 0 0 0 0 0 0

GEFSSE_con_cape1000_096.txt.gz
Probability
77 97 100 100 100 100 100 100 100 100 100 100 100 100 100 100 100 100 100 100 100 100 100 100 100 100 100 100 100 100 100 100 100 100 100 100 100 100 100 100 100 94 100
84 97 100 100 100 100 100 100 100 100 100 100 100 100 100 100 100 100 100 100 100 100 100 100 100 100 100 100 100 100 100 100 100 100 100 100 100 100 100 97 100 100 100
94 100 100 100 100 100 100 100 100 100 100 100 100 100 100 100 100 100 100 100 100 100 100 100 100 100 100 100 100 100 100 100 100 100 100 94 97 100 100 97 100 100 100
94 100 97 100 100 100 100 100 100 100 100 100 100 100 100 100 100 100 100 100 100 100 100 100 100 100 100 100 100 100 100 100 100 100 94 81 84 94 100 100 100 100 100
97 100 100 100 100 100 100 100 100 100 100 100 100 100 100 100 100 100 100 100 100 100 100 100 100 100 100 100 100 100 100 100 100 100 39 77 97 100 100 100 100 100 100
97 97 100 100 100 100 100 100 100 100 100 100 100 100 100 100 100 100 100 100 100 100 100 100 97 97 97 97 97 97 97 94 94 35 42 55 94 100 100 100 100 100 100
97 97 100 100 100 100 100 100 100 100 100 100 100 100 100 100 100 100 100 100 100 100 100 94 94 90 94 94 90 90 87 84 84 29 45 35 90 100 100 100 100 100 100
94 97 100 100 100 100 100 100 100 100 100 100 100 100 100 100 100 100 100 100 100 100 87 81 81 77 74 77 74 71 77 81 45 35 55 68 94 97 100 100 100 100 97
90 97 100 100 100 100 100 100 100 100 100 100 100 100 100 100 100 100 100 100 97 94 77 68 71 74 68 65 68 65 68 71 52 39 39 81 87 94 100 100 100 100 94
90 97 100 100 100 100 100 100 100 100 100 100 100 100 100 100 100 100 97 97 90 77 71 74 68 61 61 68 71 71 65 52 35 23 45 84 90 90 94 97 100 97 94
97 100 100 100 100 100 100 100 97 97 97 97 100 100 100 87 81 94 71 84 77 77 77 71 74 71 74 71 65 68 58 35 19 23 48 84 87 90 94 94 90 87 90
100 97 100 100 100 100 97 97 97 90 90 90 87 87 87 94 90 74 81 84 77 81 81 81 81 77 48 48 55 55 26 16 6 23 39 71 77 84 84 97 90 90 84
100 97 97 100 100 100 100 100 97 94 94 94 90 94 90 90 84 77 81 90 94 84 71 90 77 48 23 29 45 32 26 19 16 16 55 68 71 81 87 87 77 74 68
100 100 94 97 100 97 97 100 97 97 94 94 94 94 94 90 90 84 87 74 77 84 87 61 65 35 42 42 35 19 13 23 35 55 77 65 71 77 68 65 65 61 58
100 90 90 90 94 97 97 97 94 94 90 87 90 87 90 87 94 90 94 94 71 77 90 74 58 65 55 42 39 35 35 35 39 58 68 65 58 68 71 58 52 48 48
90 87 90 90 87 90 94 90 87 84 84 81 81 74 77 87 97 97 97 100 87 84 74 77 61 81 74 61 52 52 35 39 52 58 58 55 39 52 55 52 35 35 35
81 81 81 81 87 87 90 87 81 84 84 81 74 81 81 87 90 94 100 90 87 90 90 87 77 81 81 61 48 45 39 35 35 45 32 52 39 26 26 26 29 32 26
71 77 81 71 81 90 90 81 74 68 68 65 71 71 74 77 77 77 77 77 84 84 87 90 84 84 68 52 55 42 32 42 26 23 19 23 32 26 26 10 10 10 23
71 74 74 77 74 84 84 81 68 68 65 68 68 68 61 58 68 68 71 77 77 84 81 68 81 68 58 45 26 29 16 16 19 13 10 10 23 23 26 16 10 10 6
68 71 68 61 68 61 68 71 68 61 52 48 48 48 55 55 55 58 61 68 65 74 68 65 68 65 48 42 3 6 10 10 13 16 16 10 19 13 6 10 13 6 3
55 58 61 61 61 68 58 55 42 42 39 29 32 35 35 39 39 42 42 45 48 52 52 42 45 35 23 13 13 3 6 6 6 10 6 3 3 3 3 6 10 10 6
48 55 48 52 45 42 52 48 42 26 19 19 23 26 23 23 29 23 23 29 26 35 29 32 29 23 10 3 13 13 3 3 6 0 6 6 6 3 0 0 0 0 0
42 39 39 42 42 42 42 32 23 19 19 13 13 13 13 13 13 13 10 6 16 13 23 23 16 16 10 0 0 6 6 3 3 0 0 0 0 0 0 0 0 0 0
32 35 35 39 35 35 32 29 16 13 16 16 10 10 10 10 10 10 13 10 6 10 13 3 0 3 0 0 0 0 0 0 0 0 0 0 0 0 0 0 0 0 0
23 26 32 29 35 26 29 26 19 13 13 10 6 6 6 6 10 6 0 3 3 0 0 0 0 0 0 0 0 0 0 0 0 0 0 0 0 0 0 0 0 0 0
23 23 26 19 16 19 19 23 16 10 6 6 6 3 0 0 0 0 0 3 3 3 3 3 0 0 0 0 0 0 0 0 0 0 0 0 0 0 0 0 0 0 0

GEFSSE_con_cape1000_102.txt.gz
Probability
97 100 100 100 100 100 100 100 100 100 100 100 100 100 100 100 100 100 100 100 100 100 100 100 100 100 100 100 100 100 100 100 100 100 100 100 100 100 100 100 100 100 100
97 100 100 100 100 100 100 100 100 100 100 100 100 100 100 100 100 100 100 100 100 100 100 100 100 100 100 100 100 100 100 100 100 100 100 100 97 100 100 100 100 100 100
100 100 100 100 100 100 100 100 100 100 100 100 100 100 100 100 100 100 100 100 100 100 100 100 100 100 100 100 100 100 100 100 100 100 100 94 97 100 100 100 100 100 100
100 100 100 100 100 100 100 100 100 100 100 100 100 100 100 100 100 100 100 100 100 100 100 100 100 100 100 100 100 100 100 100 100 100 97 84 77 94 100 100 100 97 97
100 100 100 100 100 100 100 100 100 100 100 100 100 100 100 100 100 100 100 100 100 100 100 100 100 100 100 100 100 100 100 97 97 100 94 87 84 100 100 100 97 100 97
100 100 100 100 100 100 100 100 100 100 100 100 100 100 100 100 100 100 100 100 100 100 100 100 100 100 97 94 94 94 94 97 100 87 87 87 84 100 100 100 100 100 97
100 100 100 100 100 100 100 100 100 100 100 100 100 100 100 100 100 100 100 100 100 100 100 100 97 97 97 94 87 87 90 90 87 61 81 87 90 100 100 97 94 97 94
97 100 100 100 100 100 100 100 100 100 100 100 100 100 100 100 100 100 100 100 100 100 100 94 90 84 84 84 77 77 87 90 81 45 68 81 97 100 94 90 84 81 77
97 100 100 100 100 100 100 100 100 100 100 100 100 100 100 100 100 100 100 100 100 100 87 81 81 74 71 71 68 71 84 100 74 55 71 71 100 100 94 87 84 74 81
100 100 97 97 100 100 100 100 100 100 100 100 100 100 100 100 100 100 100 100 100 90 87 77 74 71 71 71 68 65 90 90 39 45 58 74 100 100 94 94 84 71 68
97 94 94 94 100 100 100 100 100 100 100 100 100 100 97 97 97 97 94 94 84 84 81 77 81 81 74 74 77 87 84 23 16 42 68 87 100 100 100 87 87 84 84
94 90 77 81 84 90 94 100 100 97 97 97 94 97 94 97 97 94 90 97 81 77 77 81 84 81 71 58 71 81 39 23 16 39 74 97 97 94 90 84 77 71 65
87 97 90 90 87 81 94 97 97 90 97 90 90 90 94 94 90 81 71 71 81 74 77 81 81 71 52 58 68 52 42 26 23 32 58 90 90 90 81 77 65 58 58
81 84 81 84 90 87 94 90 94 90 90 81 87 87 87 90 81 74 71 65 74 65 81 77 74 52 52 55 61 48 32 42 52 48 58 81 87 90 74 65 61 58 55
74 77 81 74 77 84 84 87 84 87 84 81 87 74 71 65 65 61 65 58 61 65 77 87 84 65 58 45 45 52 52 55 58 48 58 77 81 84 74 61 55 52 45
65 77 77 87 84 90 87 84 84 74 81 84 68 65 61 61 52 52 52 61 68 74 65 81 94 90 84 87 81 65 61 68 65 55 45 52 74 68 61 55 52 42 35
68 74 81 81 81 87 87 84 84 71 77 74 55 55 52 52 45 45 45 45 65 71 74 77 81 87 84 81 84 71 61 61 55 52 48 35 26 35 39 39 35 26 32
74 74 77 71 71 81 77 74 77 68 65 65 61 55 55 45 45 45 48 48 58 68 71 68 74 77 77 71 68 61 68 65 55 48 35 29 29 19 23 29 16 13 10
71 71 71 71 68 71 77 74 68 71 65 52 52 58 52 48 45 39 45 48 55 61 61 58 61 65 55 52 48 42 39 39 42 26 23 16 26 19 10 13 16 13 10
74 71 68 68 71 68 61 71 68 61 55 45 39 42 52 52 45 45 45 48 52 52 55 48 52 45 42 39 16 10 19 29 29 23 16 16 16 6 3 3 3 6 13
65 65 65 65 65 58 61 65 58 48 39 35 35 32 35 35 42 42 45 48 48 39 32 42 35 19 23 19 16 6 3 10 10 13 13 10 3 3 3 6 3 3 3
55 55 58 55 52 55 55 58 52 35 32 32 35 19 29 29 26 23 42 39 42 39 29 29 19 19 10 10 13 0 0 0 0 0 0 0 0 0 0 0 0 0 0
35 45 48 52 48 58 58 45 32 35 26 23 23 19 26 29 26 26 29 29 26 23 19 10 13 6 6 10 3 3 0 0 0 0 0 0 0 0 0 0 0 0 0
39 39 42 52 52 48 45 39 35 32 23 19 19 13 23 19 19 19 23 23 23 13 13 6 6 3 3 6 3 0 0 0 0 0 0 0 0 0 0 0 0 0 0
39 39 39 45 45 45 39 45 35 26 23 23 16 6 10 13 10 6 10 13 13 6 6 6 6 6 3 6 0 0 0 0 0 0 0 0 0 0 0 0 0 0 0
29 32 35 35 35 32 35 29 23 13 13 10 6 6 6 6 6 6 6 6 6 6 6 6 6 3 3 0 0 0 0 0 0 0 0 0 0 0 0 0 0 0 0

GEFSSE_con_cape1000_108.txt.gz
Probability
90 97 100 100 100 100 100 100 100 100 100 100 100 100 100 100 100 100 100 100 100 100 100 100 100 100 100 100 100 100 100 100 100 100 100 100 100 100 100 100 100 97 100
87 97 100 100 100 100 100 100 100 100 100 100 100 100 100 100 100 100 100 100 100 100 100 100 100 100 100 100 100 100 100 100 100 100 100 100 100 100 100 100 100 100 100
90 97 97 100 100 100 100 100 100 100 100 100 100 100 100 100 100 100 100 100 100 100 100 100 100 100 100 100 100 100 100 100 100 100 100 100 100 100 100 100 100 100 100
94 97 97 100 100 100 100 100 100 100 100 100 100 100 100 100 100 100 100 100 100 100 100 100 100 100 100 100 100 100 100 100 100 100 68 87 100 100 100 100 100 100 100
94 97 97 100 100 100 100 100 100 100 100 100 100 100 100 100 100 100 100 100 100 100 100 100 100 100 100 100 100 100 100 100 97 94 45 48 90 100 100 100 100 100 100
94 97 100 100 100 100 100 100 100 100 100 100 100 100 100 100 100 100 100 100 100 100 100 100 100 100 100 100 100 100 97 94 74 52 39 58 87 100 100 100 100 100 100
94 100 100 100 100 100 100 100 100 100 100 100 100 100 100 100 100 100 100 100 100 100 100 100 100 100 100 100 97 97 97 94 45 23 32 45 87 100 100 100 97 97 100
94 100 100 100 100 100 100 100 100 100 100 100 100 100 100 100 100 100 100 100 100 100 100 100 100 100 97 87 87 90 87 84 52 35 23 29 81 97 100 100 100 100 97
90 90 90 97 100 100 100 100 100 100 100 100 100 100 100 100 100 100 100 100 100 100 100 97 97 90 87 84 77 81 84 81 10 16 23 35 87 97 100 100 100 100 97
84 87 90 90 94 100 100 100 100 100 100 100 100 100 100 97 97 97 97 97 100 100 97 90 90 90 94 77 84 77 84 55 3 0 3 48 90 97 100 97 97 90 90
84 87 84 81 87 90 97 100 100 100 100 97 97 97 97 97 97 97 97 97 97 94 90 90 94 94 90 81 84 87 71 10 0 0 0 68 90 90 90 97 97 90 81
77 71 74 77 81 90 87 90 90 90 94 90 97 97 97 97 94 97 97 97 94 90 87 87 87 84 77 55 45 71 29 0 0 0 10 84 94 94 87 94 90 84 81
65 61 61 61 71 77 81 84 81 81 81 84 87 90 77 71 74 81 77 87 87 84 74 77 74 61 52 19 6 6 10 0 0 0 23 84 87 94 84 90 84 77 74
58 52 48 52 61 68 71 77 74 77 77 77 71 74 58 52 42 39 55 65 58 58 45 35 39 35 23 16 3 0 3 0 3 6 16 77 81 87 81 81 81 74 65
45 45 45 48 48 55 61 61 61 55 58 55 55 58 48 35 32 26 29 32 32 16 13 13 10 10 13 3 6 0 0 3 3 6 13 81 87 90 81 74 65 61 52
45 32 26 42 45 35 39 42 39 35 35 39 42 35 29 26 29 19 16 13 13 16 6 10 10 3 3 0 0 0 0 6 0 6 6 35 74 71 65 71 65 52 42
39 39 29 29 32 29 26 29 26 23 29 29 26 26 19 19 16 16 13 10 10 3 6 6 6 0 0 0 0 0 0 0 0 0 0 3 16 48 45 42 45 39 32
45 32 29 32 26 23 19 19 19 23 23 19 19 19 13 23 16 13 16 10 3 3 3 3 3 0 0 0 0 0 0 0 0 0 0 0 3 3 19 23 26 26 26
39 19 26 19 26 26 26 26 19 19 13 10 10 13 10 16 19 16 16 6 3 3 3 3 0 0 0 0 0 0 0 0 0 0 0 0 0 0 3 3 19 13 16
32 23 29 29 23 16 19 19 19 16 16 10 6 13 10 10 13 10 6 6 6 3 0 0 0 0 0 0 0 0 0 0 0 0 0 0 0 0 0 0 0 0 6
29 32 29 32 26 23 16 16 13 16 16 13 6 3 6 6 6 6 3 3 6 6 3 3 0 0 0 0 0 0 0 0 0 0 0 0 0 0 0 0 0 0 0
26 29 29 35 29 26 23 19 19 10 10 6 3 3 0 0 3 3 3 3 0 3 3 3 0 0 0 0 0 0 0 0 0 0 0 0 0 0 0 0 0 0 0
23 19 23 23 26 23 26 19 13 10 10 6 3 3 0 0 0 0 0 0 0 0 3 0 0 0 0 0 0 0 0 0 0 0 0 0 0 0 0 0 0 0 0
19 23 23 19 19 23 19 16 13 6 6 6 6 3 0 0 0 0 0 0 0 0 0 0 0 0 0 0 0 0 0 0 0 0 0 0 0 0 0 0 0 0 0
13 16 19 16 13 13 6 6 3 6 6 6 6 3 3 0 0 0 0 0 0 0 0 0 0 0 0 0 0 0 0 0 0 0 0 0 0 0 0 0 0 0 0
13 16 16 13 6 6 6 3 3 3 0 6 3 3 0 0 0 0 0 0 0 0 0 0 0 0 0 0 0 0 0 0 0 0 0 0 0 0 0 0 0 0 0

GEFSSE_con_cape1000_114.txt.gz
Probability
81 100 100 100 100 100 100 100 100 100 100 100 100 100 100 100 100 100 100 100 100 100 100 100 100 100 100 100 100 100 100 100 100 100 100 100 97 97 97 97 87 81 94
87 97 100 100 100 100 100 100 100 100 100 100 100 100 100 100 100 100 100 100 100 100 100 100 100 100 100 100 100 100 100 100 100 100 100 100 100 100 100 100 90 90 94
94 97 100 100 100 100 100 100 100 100 100 100 100 100 100 100 100 100 100 100 100 100 100 100 100 100 100 100 100 100 100 100 100 100 100 100 97 100 100 100 97 97 97
94 97 100 100 100 100 100 100 100 100 100 100 100 100 100 100 100 100 100 100 100 100 100 100 100 100 100 100 100 100 100 100 100 100 100 97 97 100 100 97 97 97 94
97 97 97 100 100 100 100 100 100 100 100 100 100 100 100 100 100 100 100 100 100 100 100 100 100 100 100 100 100 100 100 100 100 97 84 94 94 100 100 100 97 97 97
94 97 97 100 100 100 100 100 100 100 100 100 100 100 100 100 100 100 100 100 100 100 100 100 100 100 100 100 100 100 100 100 97 61 74 90 94 100 100 100 100 97 90
90 94 94 97 100 97 100 100 100 100 100 100 100 100 100 100 100 100 100 100 100 100 100 100 100 100 100 100 100 97 97 97 39 45 71 87 97 97 100 100 100 94 94
87 87 97 97 100 100 97 100 100 100 100 100 100 100 100 100 100 100 100 100 100 100 100 100 100 100 100 100 97 97 94 90 65 42 61 77 90 97 100 100 100 94 94
81 87 87 90 97 100 100 100 100 100 100 100 100 100 100 100 100 100 100 100 100 100 100 100 100 100 100 90 90 84 90 90 19 45 52 65 90 94 94 97 100 100 90
84 84 84 87 87 90 97 97 100 100 100 100 100 100 100 100 100 100 100 100 100 100 100 97 97 97 94 94 87 84 81 61 0 19 39 65 90 97 97 94 94 97 84
81 81 81 81 87 87 87 97 97 100 100 100 100 97 97 97 97 97 100 100 97 97 97 97 97 94 90 87 77 84 55 6 0 6 19 68 90 90 94 94 94 87 77
77 74 74 77 84 84 84 84 84 87 87 94 94 94 94 97 97 97 97 97 97 97 94 94 94 90 71 45 48 61 26 3 0 0 16 74 94 90 90 97 94 77 71
68 68 71 77 77 77 74 77 74 74 81 81 87 87 84 84 87 84 87 94 87 87 84 84 84 71 55 39 26 23 16 0 3 0 16 71 94 100 97 94 81 74 74
61 61 61 65 65 65 68 65 68 71 71 68 68 77 71 61 61 61 61 65 71 68 68 65 65 52 39 29 19 13 6 0 0 6 13 81 87 90 84 84 74 68 65
55 52 52 55 55 58 61 61 61 61 61 61 61 61 52 58 58 48 55 55 55 48 48 42 29 26 23 16 16 10 10 3 3 10 29 61 84 87 77 68 68 61 52
48 52 48 45 45 52 55 52 55 58 61 55 61 61 52 42 42 45 32 32 39 23 19 19 13 10 13 16 10 6 0 0 10 6 16 55 77 74 74 65 58 48 48
45 39 39 39 35 35 42 39 39 35 32 39 42 42 42 32 29 26 26 23 26 19 13 6 6 10 10 10 6 6 0 3 6 10 10 13 32 58 58 48 52 52 39
39 39 35 35 29 29 26 23 19 19 19 19 19 19 23 23 16 23 19 16 13 10 6 6 6 6 6 6 3 0 0 0 0 3 3 10 10 6 32 42 35 29 29
35 29 29 23 23 19 19 16 10 10 13 16 16 19 16 13 16 13 10 10 6 6 6 6 6 6 6 6 3 0 0 0 0 0 3 0 0 3 3 10 23 23 26
29 26 19 19 19 16 13 13 6 6 10 6 3 6 6 6 6 6 3 3 3 6 6 6 6 3 3 3 3 0 0 0 0 0 0 0 0 0 0 0 3 10 16
19 19 19 16 13 13 13 10 10 6 10 6 0 0 0 6 6 3 0 3 3 3 3 6 6 3 3 3 0 0 0 0 0 0 0 0 0 0 0 0 0 0 3
16 19 16 16 16 13 13 13 6 6 3 3 3 3 0 3 3 0 0 0 0 3 3 3 0 3 3 0 0 0 0 0 0 0 0 0 0 0 0 0 0 0 0
6 6 6 10 13 16 10 6 0 0 0 3 3 3 3 0 0 0 0 0 0 0 0 0 0 0 0 0 0 0 0 0 0 0 0 0 0 0 0 0 0 0 0
10 10 6 10 10 10 6 6 10 6 3 3 3 3 3 0 0 0 0 0 0 0 0 0 0 0 0 0 0 0 0 0 0 0 0 0 0 0 0 0 0 0 0
10 10 10 10 10 6 6 6 6 6 3 0 0 0 0 0 0 0 0 0 0 0 0 0 0 0 0 0 0 0 0 0 0 0 0 0 0 0 0 0 0 0 0
10 13 10 10 10 6 6 6 6 3 3 3 3 0 0 0 0 0 0 0 0 0 0 0 0 0 0 0 0 0 0 0 0 0 0 0 0 0 0 0 0 0 0

GEFSSE_con_cape1000_120.txt.gz
Probability
68 84 100 100 100 100 100 97 97 97 97 97 97 97 97 100 100 100 100 100 100 100 100 100 100 100 100 100 100 100 100 100 100 100 100 100 100 94 94 81 94 71 100
84 84 100 100 100 100 100 100 97 97 97 97 97 97 97 100 100 100 100 100 100 100 100 100 100 100 100 100 100 100 100 100 100 100 100 100 100 97 94 81 97 90 100
90 94 100 100 100 100 100 100 97 97 97 97 97 97 97 97 100 100 100 100 100 100 100 100 100 100 100 100 100 100 100 100 100 100 100 77 87 94 90 81 97 97 97
94 94 90 100 100 100 100 100 100 97 97 97 97 97 97 97 100 100 100 100 100 100 100 100 100 100 100 100 100 100 100 100 100 100 84 42 71 97 97 94 100 97 97
97 97 97 100 100 100 100 100 100 97 97 97 97 97 100 100 100 100 100 100 100 100 100 100 100 100 100 100 100 100 100 100 100 90 48 48 84 100 97 97 97 94 97
97 94 97 100 100 100 100 100 100 100 100 97 97 100 100 100 100 100 100 100 100 100 100 100 100 100 100 100 100 100 100 100 94 29 35 48 94 100 100 97 90 97 97
94 90 90 97 100 100 100 100 100 100 100 100 100 100 100 100 100 100 100 100 100 100 100 100 100 100 100 100 100 100 100 97 68 16 29 42 90 100 100 97 94 94 94
90 90 97 97 100 100 100 100 100 100 100 100 100 100 100 100 100 100 100 100 100 100 100 100 100 100 100 100 97 100 100 100 52 6 29 58 100 100 100 100 97 87 87
90 94 97 97 97 97 97 97 100 100 100 100 100 100 100 100 100 100 100 100 100 100 100 100 100 100 94 94 94 97 94 94 61 26 23 71 97 100 97 97 90 87 81
87 90 90 94 94 90 94 97 97 97 100 100 100 100 100 100 100 100 100 100 100 100 97 97 97 97 94 94 84 84 87 84 52 32 42 94 97 100 90 90 90 84 81
87 87 84 84 94 90 90 97 97 97 97 97 100 97 100 100 90 100 90 100 100 97 97 97 97 97 94 84 81 87 74 61 42 48 68 100 97 97 94 94 90 77 77
84 84 87 87 90 94 94 97 94 94 90 90 94 97 94 97 97 90 90 97 97 97 94 97 97 94 81 71 71 61 61 61 48 48 81 94 90 100 97 90 84 74 71
84 84 84 87 84 84 84 90 90 90 90 87 87 94 94 94 94 94 97 97 97 94 90 94 97 84 61 68 71 52 45 35 55 39 74 94 90 94 100 90 81 74 68
77 74 77 84 87 84 84 81 84 87 87 87 87 84 87 97 97 94 94 94 94 97 90 87 87 71 61 61 48 35 35 52 65 58 90 97 94 87 94 84 74 74 68
74 68 71 81 87 87 87 87 77 81 84 84 84 81 81 90 90 94 97 97 90 90 84 90 84 74 81 61 52 35 32 45 45 45 81 97 97 94 94 87 74 61 58
65 71 71 74 77 74 71 74 77 71 77 68 71 74 74 81 87 87 97 97 90 87 81 87 81 84 68 52 45 32 39 45 55 71 77 94 84 87 81 71 77 65 52
65 68 68 68 71 74 71 71 68 68 65 65 58 61 65 65 74 77 81 84 81 84 84 81 81 74 71 58 45 52 55 68 52 71 68 81 77 65 71 71 68 55 48
65 61 65 61 65 61 68 61 61 55 48 48 52 55 52 61 61 68 71 77 71 71 71 74 68 55 61 52 55 58 61 71 58 74 65 58 58 55 55 48 48 45 45
58 58 55 55 58 55 58 61 55 55 55 52 48 45 42 42 39 52 58 61 58 65 65 52 55 65 52 55 45 45 42 42 48 32 39 42 42 52 45 29 32 35 35
52 52 48 45 52 52 52 52 48 48 48 48 45 45 39 35 35 42 42 42 45 52 58 52 52 58 48 42 16 6 23 26 32 35 26 29 32 29 35 23 29 23 19
35 42 45 45 48 48 52 48 48 45 52 42 39 35 39 39 39 39 35 39 39 39 52 42 48 42 39 35 29 16 16 10 16 26 19 23 16 16 19 16 26 19 16
29 39 39 39 45 45 48 48 48 48 42 39 32 32 32 32 35 29 32 29 23 35 29 32 45 42 29 23 19 10 6 3 13 6 13 10 3 6 6 3 10 10 6
23 23 26 35 32 39 42 45 39 39 39 32 32 29 29 32 29 32 29 26 19 23 23 29 35 35 23 23 19 0 3 3 6 3 6 3 3 13 10 10 3 3 0
19 16 19 19 26 26 29 32 29 35 35 32 29 23 19 23 16 19 26 16 16 10 23 29 19 29 16 19 19 13 3 3 3 3 3 3 10 13 13 3 3 0 0
13 13 13 13 16 16 23 29 29 26 29 26 26 19 16 13 10 10 10 6 10 16 13 13 6 6 13 19 13 13 6 6 3 0 0 0 0 0 10 6 10 6 3
16 13 13 13 13 13 19 19 26 23 19 23 19 16 10 6 3 3 0 3 3 6 3 3 3 3 6 10 16 13 10 6 6 3 0 3 3 0 0 0 0 0 0

GEFSSE_con_cape1000_126.txt.gz
Probability
87 100 100 100 100 100 100 100 100 97 97 100 100 100 100 100 100 100 100 100 100 100 100 100 100 97 97 97 97 100 97 100 100 100 100 97 94 97 100 100 97 90 100
94 100 100 100 100 100 100 97 97 97 97 97 97 97 100 100 100 100 100 100 100 100 100 100 100 100 100 97 100 100 100 100 100 100 97 94 94 94 97 97 97 94 100
94 100 100 100 100 100 97 97 97 97 97 97 97 97 97 100 100 100 100 100 100 100 100 100 100 100 100 100 100 100 100 100 100 100 97 65 81 94 100 100 97 97 97
94 100 100 100 100 97 97 97 97 97 97 97 97 97 97 97 100 100 100 100 100 100 100 100 100 100 100 100 100 100 100 100 100 100 90 71 58 90 90 100 97 97 97
100 100 100 100 100 97 97 97 97 97 97 97 97 97 97 97 100 100 100 100 100 100 100 100 100 100 100 100 100 100 100 94 100 100 87 90 81 97 94 90 94 94 94
97 100 100 100 100 97 97 97 97 97 97 97 97 97 97 97 97 100 100 100 100 100 100 100 100 100 100 100 100 100 100 97 97 94 81 84 90 97 97 87 87 94 94
90 100 100 100 100 97 97 97 97 97 97 97 97 97 97 97 97 100 100 100 100 100 100 100 100 100 100 100 100 97 97 97 84 77 74 90 94 97 97 87 81 81 81
87 100 100 100 100 97 97 100 97 97 97 97 100 97 100 100 100 100 100 100 100 100 100 100 100 100 100 100 100 100 100 97 90 81 87 94 100 97 97 97 87 77 74
90 90 94 97 100 100 100 100 100 100 100 100 100 100 100 100 100 100 100 100 100 100 100 100 100 97 100 100 100 97 100 100 90 87 81 97 100 100 94 94 87 81 81
81 77 77 90 94 97 100 100 97 97 97 97 100 100 100 100 100 100 100 100 97 97 97 97 100 97 94 94 90 94 97 97 61 45 77 97 97 100 94 90 77 77 71
74 68 58 81 90 90 87 100 100 100 100 100 100 100 100 100 97 97 94 97 94 97 97 97 97 97 90 97 94 97 97 58 26 35 81 87 94 94 97 90 81 71 71
84 71 71 77 84 87 87 97 100 90 97 97 97 97 100 100 97 94 94 94 94 94 94 100 100 100 90 81 81 97 71 42 23 35 71 87 87 94 97 90 84 74 65
74 71 81 87 84 87 87 90 94 94 97 97 97 94 94 90 84 84 87 84 87 87 87 87 90 90 77 71 77 74 58 26 35 32 77 87 87 90 94 90 81 71 65
68 71 81 84 87 87 87 87 87 87 87 87 87 87 84 87 87 84 84 84 81 81 87 84 77 68 65 68 77 68 32 42 45 52 68 77 87 87 94 84 84 68 71
65 68 77 84 87 87 87 84 77 81 77 77 84 77 84 77 77 77 84 77 74 81 84 77 77 71 68 58 65 55 45 45 45 45 65 77 84 84 94 87 90 71 68
61 68 74 74 74 81 87 81 84 81 74 74 74 68 74 77 71 71 77 81 77 71 71 74 77 74 71 68 65 65 58 45 55 45 52 61 74 81 87 87 87 81 71
58 65 68 71 68 71 81 77 71 74 74 74 68 61 61 68 65 65 68 68 65 68 61 65 68 68 68 61 55 55 58 68 55 61 52 48 45 65 77 81 87 81 74
58 65 61 65 68 65 68 71 68 61 65 58 61 61 61 58 58 55 55 58 68 65 68 61 61 58 48 52 52 45 42 48 52 55 45 39 35 26 52 68 65 65 65
58 61 58 58 58 65 65 68 65 65 61 58 58 58 58 55 58 55 52 55 58 55 68 42 48 52 42 42 42 42 35 39 39 35 39 39 23 19 19 23 42 52 45
55 52 55 55 55 58 65 65 58 61 58 58 55 55 55 58 58 58 52 52 52 42 45 45 39 48 39 35 3 16 32 26 29 23 16 13 16 23 16 10 10 10 29
45 48 52 52 55 55 58 58 55 55 55 55 55 55 55 52 45 52 42 48 45 45 39 39 32 29 19 19 10 13 16 19 16 23 19 13 13 10 13 6 3 3 0
45 45 42 45 45 52 52 55 52 55 52 55 52 52 48 39 39 35 42 35 39 42 39 29 29 23 19 19 16 6 6 6 13 0 13 10 6 6 6 3 3 3 0
26 32 32 35 39 39 45 48 52 52 48 48 48 39 35 35 32 35 35 32 32 35 35 26 26 23 19 16 3 0 3 0 0 3 3 3 3 6 3 0 0 0 0
19 23 26 26 23 29 35 39 39 39 32 35 32 29 32 29 29 29 32 29 29 29 29 26 26 23 19 13 10 3 0 0 0 0 0 0 3 3 0 0 0 0 3
19 19 23 23 23 23 26 26 35 26 26 26 26 26 26 29 23 19 23 23 19 23 26 26 23 23 13 3 6 6 3 0 0 0 0 0 0 3 3 3 3 3 3
19 19 16 19 19 23 23 23 19 23 23 19 23 23 26 23 19 16 13 16 16 19 16 19 16 13 6 3 0 0 0 0 0 0 0 0 0 0 0 3 3 0 0

GEFSSE_con_cape1000_132.txt.gz
Probability
97 100 100 100 100 100 100 100 100 100 100 100 100 100 100 100 100 100 100 100 100 100 100 100 100 100 100 100 100 100 100 100 100 100 100 100 100 97 100 100 97 94 97
97 100 100 100 100 100 100 100 100 100 100 100 100 100 100 100 100 100 100 100 100 100 100 100 100 100 100 100 100 100 100 100 100 100 100 100 100 100 100 100 94 94 97
97 100 100 100 100 100 100 100 100 100 100 100 100 100 100 100 100 100 100 100 100 100 100 100 100 100 100 100 100 100 100 100 100 100 100 94 97 100 100 100 97 97 90
100 100 100 100 100 100 97 97 100 100 100 100 100 100 100 100 100 100 100 100 100 100 100 100 100 100 100 100 100 100 100 100 100 97 58 84 97 97 97 97 97 97 97
100 100 100 100 100 100 100 97 97 97 100 100 100 100 100 100 100 100 100 100 100 100 100 100 100 100 100 100 100 100 94 100 94 81 55 48 84 100 100 97 97 97 97
97 100 100 100 100 100 100 97 97 97 97 100 97 97 97 97 100 100 100 100 100 100 100 100 100 100 100 100 100 97 97 97 90 61 48 42 74 100 100 100 100 97 97
97 97 97 100 97 97 97 97 100 97 100 100 100 100 100 100 100 100 100 100 100 100 100 100 100 100 100 100 97 97 94 90 61 35 32 42 68 94 100 100 97 97 97
94 97 97 97 94 94 97 97 97 100 100 97 97 100 100 100 100 100 100 100 100 100 100 100 100 100 100 97 100 97 97 94 71 39 32 32 68 90 97 97 97 97 97
87 87 87 87 87 90 90 94 94 94 94 94 97 97 100 100 100 100 100 100 100 100 100 97 100 100 100 100 100 100 100 100 39 23 32 39 74 87 97 97 97 97 90
81 84 84 84 84 87 87 87 90 94 94 97 97 97 97 100 100 100 100 100 100 100 100 100 100 100 100 100 97 94 100 84 32 23 16 45 94 90 94 94 94 94 81
65 68 71 74 81 84 84 87 87 87 90 94 94 97 94 81 81 90 100 94 100 90 97 100 100 100 100 90 94 94 74 42 19 10 6 65 87 87 87 90 94 90 81
58 55 58 55 65 74 84 81 77 77 74 74 74 81 71 71 74 77 84 94 87 87 84 97 97 94 90 68 71 77 65 26 6 13 10 81 90 87 84 87 94 84 84
35 52 45 48 52 61 71 71 71 65 65 65 68 65 65 65 61 61 68 65 71 74 65 68 68 68 68 55 32 19 29 10 6 10 16 81 87 84 84 84 87 84 84
32 42 35 39 39 42 48 48 58 58 61 52 55 48 45 39 42 42 39 42 45 42 42 42 35 42 32 26 13 3 6 3 3 3 13 68 81 81 77 77 71 77 81
16 26 29 29 32 32 35 35 39 39 29 48 45 42 42 26 26 29 35 39 39 35 29 29 26 26 16 19 13 3 3 3 3 3 6 55 61 84 81 74 77 77 74
16 19 26 26 32 32 35 42 39 39 32 29 32 32 29 23 23 23 19 26 29 26 29 26 23 19 16 16 16 10 6 3 0 3 3 29 58 58 71 71 71 65 74
19 16 29 32 26 32 29 35 35 32 23 29 29 32 29 19 19 23 19 16 19 19 19 13 13 13 6 10 6 3 3 3 0 3 6 10 23 45 55 65 71 71 68
19 16 23 19 19 29 29 29 26 23 23 26 26 23 23 16 16 16 16 16 19 16 10 10 13 10 10 6 3 3 3 3 3 0 6 6 3 6 35 52 58 55 58
16 16 26 19 19 26 32 26 29 29 23 19 19 13 16 19 16 16 16 16 16 10 10 10 6 3 3 0 0 3 3 3 0 3 0 3 3 0 0 29 42 42 48
16 16 13 6 13 19 29 26 23 19 13 16 13 13 16 16 16 10 10 13 10 10 6 6 6 3 3 0 0 0 0 0 0 0 0 0 0 0 0 0 16 19 39
16 13 10 3 13 13 16 19 16 13 16 19 16 13 13 16 16 16 10 10 6 3 6 6 3 3 3 0 0 0 0 0 0 0 0 0 0 0 0 0 0 0 3
3 3 3 10 16 16 16 13 13 13 16 16 19 19 16 19 13 16 10 6 6 3 3 3 0 3 3 3 0 0 0 0 0 0 0 0 0 0 0 0 0 0 0
3 6 10 13 13 13 16 16 13 13 16 13 13 13 10 10 13 10 6 6 6 3 3 3 3 0 3 0 0 0 0 0 0 0 0 0 0 0 0 0 0 0 0
10 13 13 13 13 13 13 10 13 13 13 13 13 6 6 6 10 10 6 6 6 6 3 3 3 0 0 0 0 0 0 0 0 0 0 0 0 0 0 0 0 0 0
13 13 13 13 13 13 13 10 10 3 6 10 6 6 6 6 6 6 6 6 6 6 3 0 0 0 0 0 0 0 0 0 0 0 0 0 0 0 0 0 0 0 0
16 13 13 10 13 10 10 6 6 6 6 3 6 6 6 6 6 6 3 3 3 3 3 0 0 0 0 0 0 0 0 0 0 0 0 0 0 0 0 0 0 0 0

GEFSSE_con_cape1000_138.txt.gz
Probability
81 100 100 100 100 100 100 100 100 100 100 100 100 100 100 100 100 100 100 100 100 100 100 100 100 100 100 100 100 100 100 100 97 97 100 100 100 100 100 97 97 87 100
90 100 100 100 100 100 100 100 100 100 100 100 100 100 100 100 100 100 100 100 100 100 100 100 100 100 100 100 100 100 100 100 100 100 100 100 100 100 97 97 90 90 97
100 100 100 100 100 100 100 100 100 100 100 100 100 100 100 100 100 100 100 100 100 100 100 100 100 100 100 100 100 100 100 100 100 100 100 97 100 100 97 97 97 94 90
100 97 100 100 100 100 100 100 100 100 100 100 100 100 100 100 100 100 100 100 100 100 100 100 100 100 100 100 100 100 100 100 100 97 94 94 97 100 97 97 97 94 90
97 97 100 100 100 100 100 100 100 100 100 100 100 100 100 100 100 100 100 100 100 100 100 100 100 100 100 100 100 100 97 94 94 90 87 90 97 97 97 97 97 94 94
97 97 97 97 97 97 100 100 100 100 100 100 100 100 100 97 97 97 100 100 100 100 100 100 100 100 100 100 100 100 97 97 84 68 77 84 97 97 97 97 97 94 94
97 97 97 97 97 97 100 100 100 100 100 100 100 97 97 97 97 97 100 100 100 100 100 100 100 100 100 100 100 100 97 97 35 55 71 84 94 100 97 97 97 97 97
87 84 90 97 94 94 97 100 100 100 100 100 97 97 97 97 97 100 100 100 100 100 100 100 100 100 97 97 97 100 97 90 77 45 55 81 84 100 94 94 97 97 94
81 84 84 87 87 90 94 94 94 97 97 100 100 100 100 100 100 100 97 100 100 100 100 100 100 97 97 97 94 94 97 87 45 58 48 61 77 100 97 94 97 97 94
65 68 74 77 81 87 87 90 90 94 94 94 94 97 97 94 94 94 94 97 100 100 100 97 97 97 100 100 90 97 94 71 29 39 55 48 77 97 97 100 97 97 94
65 61 68 68 71 81 81 84 84 87 87 87 87 90 90 74 77 84 90 97 97 100 100 100 97 100 97 94 94 94 77 35 26 29 32 52 94 94 94 94 97 97 90
48 55 61 65 68 74 77 71 71 68 71 68 68 68 68 68 68 81 84 90 97 97 97 97 97 94 81 68 81 77 48 29 23 29 29 68 90 100 97 97 94 90 94
42 45 48 52 55 58 61 61 58 55 55 61 61 58 65 61 58 61 58 61 65 65 61 58 65 58 55 55 45 29 29 29 26 23 29 68 90 94 90 94 87 81 84
23 29 26 26 32 39 39 45 48 48 48 48 48 48 45 35 35 32 35 35 39 42 42 42 35 39 45 35 23 16 19 29 19 16 16 65 81 87 90 90 87 81 84
16 23 29 26 26 26 26 29 32 39 42 42 35 39 35 32 26 26 35 26 26 32 32 26 29 29 32 26 26 26 19 19 16 13 10 35 58 71 77 84 77 81 84
19 19 16 19 19 19 19 23 23 26 26 26 26 32 32 23 23 16 13 13 19 23 26 26 26 26 23 23 23 29 19 13 6 3 6 13 45 58 68 74 74 81 77
16 13 10 10 13 16 19 19 19 19 16 16 19 19 19 19 13 13 13 10 13 10 13 13 16 10 13 16 16 16 16 13 10 6 6 6 13 35 48 68 65 65 65
16 10 10 13 6 10 10 16 23 19 13 6 13 13 13 10 3 10 13 13 6 6 6 13 13 10 10 13 13 6 6 6 10 10 10 6 6 6 29 45 58 58 58
10 6 6 6 6 3 6 13 19 16 10 10 6 6 10 10 3 3 6 6 6 0 3 6 10 10 6 6 3 6 3 3 6 6 3 3 3 3 3 16 32 35 42
6 6 6 6 6 3 3 6 10 13 10 6 10 6 3 6 10 6 6 6 6 3 0 0 3 3 3 3 3 3 0 0 3 3 3 3 3 3 0 0 10 23 26
6 6 6 6 3 3 3 6 6 10 6 6 6 6 6 3 3 6 6 6 3 3 3 3 0 0 0 3 3 3 0 0 0 0 3 3 3 3 3 3 3 6 6
3 3 3 3 3 3 6 3 3 3 3 3 3 3 3 6 3 6 6 3 3 0 0 0 0 0 0 0 3 3 3 0 0 0 0 0 3 3 3 0 0 0 0
3 3 3 3 3 3 3 0 3 3 3 3 3 10 6 6 6 6 10 6 6 3 3 0 0 3 0 0 0 3 3 3 0 0 0 0 0 0 0 0 0 0 0
3 3 3 3 3 3 3 0 3 3 3 3 3 3 3 6 6 6 6 6 6 6 0 0 3 3 3 0 0 0 3 3 0 0 0 0 0 0 0 0 0 0 0
6 6 6 6 6 6 6 3 3 3 3 3 0 0 0 0 6 6 6 6 3 3 0 0 0 0 0 0 0 0 0 0 0 0 0 0 0 0 0 0 0 0 0
13 6 3 6 6 6 6 3 3 3 3 3 0 0 0 0 0 0 3 3 3 3 0 0 0 0 0 0 0 0 0 0 0 0 0 0 0 0 0 0 0 0 0

GEFSSE_con_cape1000_144.txt.gz
Probability
45 61 100 100 100 100 100 100 100 100 100 100 100 100 100 100 100 100 100 100 100 100 100 100 97 100 100 100 100 100 100 100 100 100 100 97 100 100 100 100 100 84 94
52 71 100 100 100 100 100 100 100 100 100 100 100 100 100 100 100 100 100 100 100 100 100 100 97 97 97 100 100 100 100 100 100 100 97 100 100 100 100 90 100 100 100
71 77 90 100 100 100 100 100 100 100 100 100 100 100 100 100 100 100 100 100 100 100 100 100 100 97 100 100 100 100 100 100 100 100 100 87 94 94 100 87 100 100 100
84 84 77 100 100 100 100 100 100 100 100 100 100 100 100 100 100 100 100 100 100 100 100 100 100 100 100 100 100 100 100 100 100 100 81 58 61 94 94 97 97 100 100
90 94 97 97 100 100 100 100 100 100 100 100 100 100 100 100 100 100 100 100 100 100 100 100 100 100 100 100 100 100 100 97 94 90 42 52 94 94 97 97 97 94 94
90 90 90 97 97 97 100 100 100 100 100 100 100 100 100 100 100 100 100 100 100 100 100 100 100 100 100 100 97 94 97 94 84 45 35 42 81 100 94 97 94 94 94
84 87 90 97 97 97 97 100 100 100 100 100 97 97 97 97 97 97 100 100 97 97 97 97 97 97 100 100 94 94 94 87 77 32 35 42 77 97 100 97 94 97 97
90 87 94 94 94 90 94 94 94 94 97 97 97 97 97 97 97 97 100 100 100 97 94 100 100 97 97 97 90 90 90 94 61 39 39 61 97 100 100 100 97 97 97
84 87 87 90 90 90 87 84 84 84 87 90 90 97 94 97 94 94 97 97 100 100 100 97 100 100 97 94 90 87 90 97 68 48 45 71 94 100 97 94 97 94 90
74 74 81 87 87 87 84 84 84 84 84 84 84 84 87 90 90 94 94 97 97 97 100 97 90 97 94 90 94 94 90 77 45 39 55 74 100 100 97 90 84 87 90
71 71 74 74 81 81 81 81 81 81 81 84 84 84 84 90 81 84 90 84 90 97 97 100 97 97 97 97 100 90 74 45 35 39 52 81 87 94 94 87 74 74 84
68 65 68 71 77 77 74 81 84 81 81 87 81 81 81 87 87 68 81 87 84 87 87 94 87 77 74 74 77 68 48 35 29 45 65 87 84 81 90 84 87 77 77
61 61 61 65 71 71 71 74 74 77 71 74 74 84 84 87 87 81 90 87 97 81 90 90 77 65 55 48 58 48 48 39 45 32 61 87 87 87 81 90 84 68 65
52 52 55 61 65 68 71 71 68 65 65 68 71 71 77 81 77 81 84 77 77 81 87 71 77 74 68 52 52 45 29 39 35 42 77 74 77 81 81 77 71 65 65
48 45 42 45 48 58 55 58 61 65 58 71 71 68 68 65 65 71 74 74 68 65 74 71 52 71 71 58 42 39 29 35 45 45 55 68 61 65 71 74 68 58 65
45 42 42 42 42 42 45 52 58 55 55 52 55 55 55 55 61 58 55 58 42 52 48 61 52 77 65 71 65 52 42 45 45 61 52 61 52 52 52 65 65 58 71
29 35 35 39 42 42 42 39 39 45 42 42 42 45 48 48 48 48 45 42 42 52 55 55 52 65 61 61 55 48 52 42 45 52 52 61 45 42 45 45 52 58 55
29 35 32 32 35 35 32 42 39 39 42 35 35 42 35 29 39 48 48 39 42 39 45 45 45 48 48 45 45 48 32 52 32 39 42 42 48 39 35 32 32 45 42
29 26 26 32 35 35 39 42 35 39 35 29 29 26 26 26 26 35 39 42 35 39 39 32 35 35 29 32 29 32 26 35 39 32 35 32 45 48 35 39 29 35 35
23 23 23 26 23 29 35 35 39 35 32 26 26 26 26 26 29 29 29 29 23 23 26 29 32 35 35 32 13 13 23 26 29 29 29 26 35 32 23 16 35 32 26
16 16 16 16 23 29 35 39 35 32 23 23 23 23 23 23 26 29 26 26 23 23 26 26 29 29 29 29 23 26 19 13 23 29 29 32 23 26 23 26 23 23 19
16 16 13 13 16 16 19 26 26 19 16 16 16 19 19 16 26 10 26 19 23 23 26 23 23 26 26 26 26 19 19 16 23 10 16 23 19 19 26 19 23 23 19
13 13 13 16 16 16 16 19 19 19 16 16 19 19 19 16 13 19 16 13 13 16 13 13 19 19 19 23 23 29 23 10 10 19 10 10 13 19 16 19 16 26 26
13 13 13 16 16 16 13 13 16 16 13 13 16 13 10 6 10 10 10 10 13 13 10 6 10 10 13 16 13 26 26 16 13 10 10 10 10 16 13 10 6 23 19
13 13 16 16 16 16 13 16 13 10 10 10 13 13 6 6 10 6 6 6 13 13 13 6 10 6 10 6 16 19 19 23 19 16 16 6 3 6 6 13 13 19 13
16 16 16 13 13 13 13 13 13 13 13 6 10 6 3 3 3 3 6 6 6 6 6 10 10 6 6 6 13 13 16 13 19 13 13 10 6 10 3 6 10 10 10

GEFSSE_con_cape1000_150.txt.gz
Probability
71 90 100 100 100 100 100 100 100 100 100 100 100 100 100 100 100 100 100 100 100 100 100 100 97 97 100 100 100 100 100 100 100 100 97 94 97 100 100 100 100 90 97
84 94 100 100 100 100 100 100 100 100 100 100 100 100 100 100 100 100 100 100 100 100 100 100 97 90 94 100 97 100 100 100 100 97 97 97 94 100 100 100 100 97 97
90 90 100 100 100 100 100 100 100 100 100 100 100 100 100 100 100 100 100 100 100 100 100 100 94 90 90 94 97 97 97 97 97 100 97 94 97 94 97 100 100 100 97
77 94 100 100 100 100 100 100 100 100 100 100 100 100 100 100 100 100 100 100 100 100 97 100 97 90 94 97 97 90 90 94 97 100 100 84 81 94 94 90 97 100 94
90 94 97 100 100 100 97 97 97 97 97 100 100 100 100 100 100 100 100 97 97 97 97 97 100 97 94 100 97 97 94 87 87 97 94 94 97 100 100 94 87 90 94
84 94 97 97 97 97 97 97 97 97 97 100 100 100 100 100 100 100 100 97 97 97 94 97 97 94 87 90 87 90 84 90 90 74 81 87 94 100 94 90 87 90 94
77 84 87 97 97 94 97 97 97 94 97 97 97 97 100 100 100 97 94 87 94 97 94 94 90 94 87 87 87 87 84 90 94 77 71 74 97 100 94 87 84 84 77
77 84 90 94 94 94 94 87 87 90 90 87 90 90 94 94 94 97 97 84 87 87 90 90 90 87 81 81 77 81 94 100 84 61 61 84 100 100 90 87 87 84 71
71 74 71 77 87 87 87 87 87 84 84 84 87 87 87 87 87 87 90 90 94 87 90 81 81 84 84 87 84 84 100 100 87 68 55 81 100 100 97 90 84 84 84
61 65 74 68 81 77 84 84 84 84 84 84 84 84 84 87 87 87 90 97 90 90 87 87 81 84 87 94 90 94 100 100 58 32 48 87 97 100 100 97 81 71 74
71 65 65 65 71 74 74 74 81 81 81 81 81 84 84 87 81 87 81 87 87 87 90 90 87 87 97 100 100 100 97 58 19 32 55 84 97 94 94 81 71 71 71
58 48 58 65 65 61 61 68 74 74 81 81 81 81 74 77 77 74 71 84 81 81 87 84 90 97 94 74 87 90 68 32 26 32 55 84 81 94 81 74 71 71 71
61 58 55 58 68 65 68 61 74 68 71 74 74 77 77 81 77 81 81 81 77 81 74 81 87 71 87 61 81 65 55 29 29 19 58 77 77 81 81 81 74 71 74
58 48 55 58 65 71 77 68 74 74 71 68 77 74 74 74 71 77 81 81 77 71 77 77 77 74 68 61 58 65 55 55 65 55 71 81 81 84 77 77 74 77 74
52 55 55 65 68 68 68 65 48 61 52 52 61 61 65 65 58 65 65 71 71 65 61 71 65 74 71 74 58 58 71 61 58 55 71 77 77 71 74 65 71 71 74
52 55 55 58 61 68 68 61 58 48 55 55 55 55 58 61 65 65 68 68 65 58 55 61 61 61 58 68 58 61 68 71 71 74 68 74 71 68 65 65 65 65 61
58 58 58 52 52 61 61 52 45 45 45 45 45 42 42 45 48 55 52 52 58 58 58 58 52 61 58 45 61 58 65 68 65 74 68 61 65 61 68 65 65 58 58
52 58 61 48 52 58 65 65 48 45 45 45 42 39 35 35 35 42 52 52 48 48 48 45 45 48 45 48 45 42 45 68 65 65 58 61 55 52 65 61 55 52 42
52 52 55 52 55 52 55 58 52 48 42 39 35 32 29 29 29 35 42 45 42 42 42 29 39 39 35 35 29 32 32 42 52 42 48 55 55 58 48 42 52 45 35
39 42 48 48 55 55 52 45 48 45 35 35 32 32 29 29 26 29 26 35 32 35 42 35 35 35 32 35 23 23 29 29 35 35 35 35 42 42 39 35 35 29 32
23 23 32 29 32 42 45 42 32 35 35 29 26 29 29 29 29 29 26 32 35 32 35 29 32 32 26 29 26 23 19 23 23 19 19 29 26 35 39 26 23 23 16
19 23 23 26 23 26 32 32 26 23 32 29 23 19 23 29 29 23 29 32 32 32 26 26 23 23 19 19 19 16 10 16 23 10 13 23 16 19 23 16 19 19 13
19 19 23 23 23 23 23 19 23 26 23 16 16 23 19 19 23 23 23 29 32 32 26 26 23 16 13 16 16 10 10 10 13 16 16 10 13 13 16 16 16 13 16
19 19 23 19 19 23 23 23 16 23 13 10 13 19 19 19 19 19 23 23 23 26 23 19 19 10 16 13 13 10 10 10 6 3 6 13 10 6 13 6 6 6 10
19 16 19 16 16 16 19 19 16 19 10 13 13 19 19 16 13 16 16 19 19 19 19 16 13 10 10 10 10 10 10 6 6 3 0 6 6 6 10 10 6 6 10
16 16 16 16 16 16 16 19 16 13 10 13 10 10 10 10 6 3 6 10 10 10 6 13 10 6 6 3 6 3 3 6 6 3 3 3 0 0 6 6 3 6 3

GEFSSE_con_cape1000_156.txt.gz
Probability
90 100 100 100 100 100 100 100 100 100 100 100 100 100 100 100 100 100 100 100 100 100 100 100 100 100 100 100 100 100 100 100 100 100 100 100 100 100 100 100 100 94 97
87 100 100 100 100 100 100 100 100 100 100 100 100 100 100 100 100 100 100 100 100 100 100 100 100 100 100 100 100 100 100 100 100 97 97 97 100 100 100 100 97 94 100
97 100 100 100 100 100 100 100 100 100 100 100 100 100 100 100 100 100 100 100 100 100 100 97 94 100 97 97 97 100 100 100 100 100 97 87 100 100 100 100 100 100 100
94 100 100 100 100 100 100 100 100 100 100 100 100 100 100 100 100 100 100 100 97 97 97 97 87 94 100 100 100 97 97 97 100 97 81 87 94 100 100 100 100 97 100
90 97 100 100 100 100 100 100 100 100 100 100 100 100 100 100 100 100 100 97 97 97 97 90 90 94 97 100 100 100 90 94 90 81 65 65 74 97 97 100 97 97 94
90 94 100 100 100 100 100 100 100 100 100 100 100 100 100 100 100 100 100 94 94 94 94 94 97 97 97 97 97 90 94 94 81 48 35 55 68 94 97 94 97 97 100
84 90 94 100 100 100 100 97 97 97 100 100 97 97 97 97 100 100 100 94 94 94 94 94 97 90 90 94 94 97 97 94 61 32 26 42 55 94 94 97 94 97 100
77 87 90 97 97 97 97 94 90 94 97 94 97 97 94 97 100 100 97 94 97 94 97 97 97 84 84 97 94 94 100 90 65 32 26 29 58 90 90 90 90 97 90
74 77 84 87 90 90 90 90 90 90 84 87 87 84 87 87 90 90 87 90 94 97 97 97 94 87 87 84 94 94 100 94 45 26 32 26 77 87 97 100 100 90 90
55 65 68 71 74 74 81 84 84 81 81 84 84 84 84 81 81 81 87 87 90 90 87 90 84 87 87 90 94 100 100 94 29 23 10 32 81 94 94 100 97 90 87
48 48 48 55 58 68 71 71 74 77 71 71 71 81 74 68 61 68 77 81 84 84 84 81 81 84 90 87 94 90 84 52 13 13 10 42 81 84 87 97 97 90 87
39 42 45 45 48 52 55 55 58 58 58 55 48 55 52 52 45 55 68 77 77 71 68 74 81 77 71 45 39 68 48 35 10 6 6 68 68 74 87 87 94 90 81
32 35 39 32 32 32 35 39 39 35 39 42 48 39 39 35 35 42 42 39 39 52 35 42 52 45 35 23 19 16 13 23 13 10 19 65 61 65 74 84 77 71 84
32 32 29 26 26 32 32 32 29 23 23 26 32 32 19 26 26 29 26 26 26 23 26 19 26 23 16 13 10 10 13 16 13 10 13 61 65 71 71 74 68 71 68
29 32 35 26 23 26 26 32 32 23 23 23 23 23 16 19 19 13 23 19 13 10 6 3 6 10 6 6 6 13 13 16 13 13 10 65 74 71 71 68 61 68 71
35 32 29 19 23 26 23 26 19 19 23 23 19 16 16 13 16 16 16 13 3 6 0 3 3 3 3 3 6 3 13 6 10 10 6 26 61 71 68 71 71 68 61
29 29 29 23 23 19 19 23 16 16 19 13 13 13 13 13 13 13 13 13 13 6 3 3 0 0 0 0 0 0 0 0 0 0 3 3 16 45 68 71 68 61 58
16 13 19 29 19 16 16 16 16 13 13 10 6 10 19 16 16 13 16 13 10 10 3 3 0 0 0 0 0 0 0 0 0 3 3 3 3 6 19 58 61 58 52
10 10 16 16 16 16 13 13 13 16 13 10 13 13 10 16 16 13 13 16 10 6 6 3 0 0 0 0 0 0 0 0 0 3 0 0 0 0 0 10 39 42 48
13 16 16 13 16 13 16 13 13 16 16 10 16 13 10 13 13 13 16 16 13 10 6 6 6 0 0 0 0 0 0 0 0 0 0 0 0 0 0 0 3 23 23
13 16 16 16 16 13 13 16 13 13 10 10 13 13 10 13 10 10 13 13 10 6 6 6 6 3 0 0 0 0 0 0 0 0 0 0 0 0 0 0 0 0 0
13 16 13 16 16 16 13 13 13 10 10 10 10 13 10 10 10 10 6 3 3 6 6 6 6 0 0 0 0 0 0 0 0 0 0 0 0 0 0 0 0 0 0
16 16 16 13 13 13 13 10 10 10 10 6 6 6 6 6 10 6 6 6 6 3 0 3 3 0 0 0 0 0 0 0 0 0 0 0 0 0 0 0 0 0 0
16 13 10 13 13 13 10 10 10 10 10 10 3 6 6 6 6 3 3 3 3 0 0 0 0 0 0 0 0 0 0 0 0 0 0 0 0 0 0 0 0 0 0
13 10 10 10 10 10 10 10 10 10 6 6 3 6 6 6 6 3 3 3 0 0 0 0 0 0 3 0 0 0 0 0 0 0 0 0 0 0 0 0 0 0 0
10 10 10 13 10 10 10 10 10 6 6 3 3 6 3 3 3 3 0 0 0 0 0 0 0 0 0 3 0 0 0 0 0 0 0 0 0 0 0 0 0 0 0

GEFSSE_con_cape1000_162.txt.gz
Probability
77 84 100 100 100 100 100 100 100 100 100 100 100 100 100 100 100 100 100 100 100 100 97 100 100 100 97 94 100 100 100 100 97 97 100 100 100 100 100 97 97 87 97
90 94 100 100 100 100 100 100 100 100 100 100 100 100 100 100 100 100 100 100 100 100 97 100 100 100 94 94 100 100 100 100 97 97 97 97 100 100 100 94 90 94 94
90 94 100 100 100 100 100 100 100 100 100 100 100 100 100 100 100 100 100 100 100 100 97 97 97 100 97 100 100 100 100 100 100 94 97 97 97 100 100 90 90 97 94
94 97 100 100 100 100 100 100 100 100 100 100 100 100 100 100 100 100 100 97 97 97 94 94 97 94 94 100 100 100 97 97 97 94 94 97 97 97 100 97 97 97 100
94 94 100 100 100 100 100 100 100 100 100 100 100 100 100 100 100 100 100 97 97 94 90 87 87 87 90 94 94 97 97 94 94 94 87 87 84 97 100 97 94 94 97
90 90 100 100 100 100 100 100 100 100 100 100 100 97 97 97 97 100 97 97 97 100 94 87 87 90 94 94 90 97 90 90 81 65 68 74 84 90 97 94 90 94 97
87 87 94 97 100 100 94 94 97 97 97 97 97 97 97 97 97 97 97 97 97 94 90 90 97 97 97 97 94 97 90 87 52 39 55 68 81 94 97 94 100 90 87
84 87 87 94 87 87 87 90 90 87 90 90 97 94 97 97 97 97 97 97 97 90 94 94 97 97 94 97 90 94 94 74 45 45 52 68 71 90 97 97 97 97 90
71 74 81 84 84 90 90 90 90 90 90 90 90 90 90 94 94 90 90 90 94 90 87 84 84 84 90 90 84 94 94 84 42 52 39 52 61 90 97 94 97 97 90
65 65 65 68 74 84 84 90 87 87 84 84 84 87 87 81 77 84 87 87 84 84 81 77 87 84 84 87 87 94 84 71 42 26 45 42 81 94 90 84 84 90 87
52 55 55 52 58 58 71 74 65 65 65 58 61 68 65 52 48 55 71 77 74 77 77 81 81 74 77 74 77 84 74 42 26 23 32 52 81 94 84 77 81 81 77
45 45 45 48 48 48 52 52 55 55 52 48 48 48 48 42 42 52 58 65 68 65 61 65 65 65 52 35 42 39 29 23 19 29 29 61 81 84 77 71 74 77 74
45 42 42 39 39 35 39 45 42 35 42 42 42 42 32 23 26 35 32 35 32 39 32 29 32 32 35 26 23 19 19 23 26 23 26 65 81 71 74 71 68 77 74
35 42 35 29 26 29 32 32 26 26 26 29 26 32 23 19 23 26 29 32 29 23 23 26 19 23 16 16 10 10 13 16 13 16 13 55 71 74 65 65 71 68 68
29 32 26 26 26 23 23 26 26 26 23 16 16 23 16 16 13 23 23 16 19 19 13 10 10 10 10 10 10 10 10 23 13 10 13 23 48 61 55 52 68 55 55
19 23 23 19 16 19 16 19 16 19 16 16 16 19 16 16 13 10 16 16 16 13 10 6 6 10 6 6 6 6 6 10 6 6 3 0 29 42 58 58 48 45 48
16 10 13 13 13 13 13 10 6 6 13 19 13 13 16 13 13 13 13 13 13 13 10 6 6 0 3 3 3 6 6 6 6 6 3 6 6 10 23 39 45 45 48
13 6 6 13 10 10 10 10 6 10 10 10 10 6 10 10 10 13 13 13 13 6 6 6 6 0 3 0 0 3 10 10 10 6 6 6 0 0 0 10 19 39 39
10 10 6 6 10 10 6 10 10 10 10 10 6 6 6 10 13 10 10 13 13 3 6 3 3 0 0 0 0 0 0 0 0 0 0 3 0 0 0 0 6 13 19
10 10 6 10 6 6 10 10 10 6 6 3 6 6 10 10 10 6 10 10 6 3 3 0 3 0 0 0 0 0 0 0 0 0 0 0 0 0 0 0 0 0 3
10 13 10 3 6 10 10 10 10 10 6 6 10 10 10 6 6 6 10 6 0 0 3 3 0 0 0 0 0 0 0 0 0 0 0 0 0 0 0 0 0 0 0
6 6 3 6 3 6 10 10 10 10 6 6 6 3 3 6 6 6 6 6 3 0 0 6 6 0 0 0 0 0 0 0 0 0 0 0 0 0 3 0 0 0 0
13 6 3 3 6 10 10 10 10 10 3 6 3 3 6 3 3 6 3 3 3 0 0 0 3 0 0 0 0 0 0 0 0 0 0 0 0 0 0 0 0 0 0
10 10 6 6 6 10 10 10 10 10 10 6 3 3 3 6 6 3 3 3 3 3 0 0 0 3 0 0 0 0 0 0 0 0 0 0 0 0 0 0 0 0 0
6 6 6 6 6 10 10 10 10 10 10 3 0 0 0 0 3 3 3 3 3 3 0 0 0 0 0 0 0 0 0 0 0 0 0 0 0 0 0 0 0 0 0
6 6 6 6 6 6 6 10 10 10 6 3 3 3 0 0 0 3 3 3 0 0 0 0 0 0 0 0 0 0 0 0 0 0 0 0 0 0 0 0 0 0 0

GEFSSE_con_cape1000_168.txt.gz
Probability
35 39 84 97 97 100 100 100 100 100 100 100 100 100 100 100 100 100 100 100 100 97 97 87 90 94 90 90 90 90 94 94 97 97 94 94 94 90 94 94 94 94 100
39 52 90 97 97 97 100 100 100 100 100 100 100 100 100 100 100 100 100 100 97 97 97 94 94 90 90 90 87 90 94 97 97 90 81 90 90 94 97 87 97 97 97
55 65 58 97 97 97 100 100 100 100 100 100 100 100 100 100 100 100 100 97 97 97 97 94 90 94 87 90 94 97 94 94 90 94 97 94 87 87 81 81 94 100 97
61 68 65 97 97 97 100 100 100 100 100 100 100 100 100 100 97 97 97 94 94 94 90 81 77 81 90 94 90 90 94 94 90 97 81 48 61 90 84 77 87 87 84
71 77 84 97 97 97 100 100 100 100 100 97 97 100 97 94 94 94 94 84 84 84 90 84 71 77 81 84 90 87 94 90 94 90 29 32 77 94 90 90 87 87 81
71 74 81 97 94 97 97 97 97 94 97 97 97 97 97 97 94 94 94 90 90 84 77 87 84 81 77 77 84 87 90 90 84 55 39 45 74 97 84 87 84 84 90
65 74 77 94 90 90 90 90 94 94 94 94 94 90 94 90 97 97 97 90 87 87 81 81 81 84 84 84 81 81 84 87 90 55 68 61 81 97 90 90 84 81 90
65 77 84 94 87 87 87 87 90 90 90 90 90 90 90 87 87 87 84 84 84 81 77 77 77 71 77 87 84 81 84 84 65 42 65 77 84 87 94 97 90 84 77
65 71 81 81 90 87 87 87 87 87 87 87 87 87 90 90 90 81 81 81 77 77 74 71 74 74 77 77 77 81 77 77 58 55 52 81 87 87 74 84 77 87 84
65 65 68 71 81 81 81 81 81 81 81 77 77 81 81 84 81 81 81 77 77 74 71 65 68 61 65 71 77 77 81 61 26 35 58 77 94 81 81 77 74 74 77
65 68 71 74 77 65 61 68 68 65 68 68 71 68 71 71 68 71 61 68 71 71 71 71 61 61 68 68 71 65 68 45 29 35 58 81 84 81 84 84 71 65 61
65 65 71 68 71 61 52 71 74 65 65 61 58 61 65 65 61 32 52 58 55 52 48 55 58 61 61 52 61 65 52 52 26 35 61 84 74 71 74 74 68 65 55
65 65 65 71 71 65 68 71 68 58 61 58 58 61 61 61 55 39 58 55 61 42 45 45 52 52 39 35 55 48 55 42 39 39 61 65 68 68 61 58 61 61 58
61 61 61 71 68 68 68 58 52 48 52 48 55 55 52 55 52 52 52 45 52 55 48 45 52 45 39 32 35 35 29 45 35 48 65 45 45 45 52 52 52 52 58
58 58 65 61 61 61 61 55 45 48 45 48 52 52 52 52 52 58 61 55 52 42 42 52 45 42 39 35 29 23 23 16 26 26 39 35 39 39 32 35 42 39 32
55 58 55 61 61 58 58 55 45 42 48 39 48 45 48 48 45 48 52 48 45 42 32 39 32 39 39 29 23 16 19 19 26 32 32 32 32 29 32 29 19 23 29
55 55 58 58 55 52 52 45 42 42 45 48 39 45 45 45 45 42 39 39 35 35 29 35 35 32 29 19 26 23 26 23 26 19 16 26 26 26 23 19 23 23 16
55 55 52 45 45 45 45 42 35 32 32 35 42 42 39 42 39 42 39 32 35 29 26 32 29 35 26 29 26 16 23 29 23 16 13 13 26 19 16 13 10 10 13
52 52 52 42 42 42 35 39 35 39 35 35 39 32 32 39 42 39 39 39 39 29 26 26 26 26 26 29 19 29 16 13 19 13 16 19 19 23 16 16 13 10 10
45 39 42 39 35 32 23 23 23 26 29 26 29 35 35 35 32 29 29 32 26 29 26 26 26 29 26 19 10 6 13 10 13 16 13 16 13 10 6 6 13 6 6
39 39 39 32 32 29 19 16 19 26 32 26 23 23 23 23 19 23 26 26 29 26 26 19 19 19 19 23 16 10 10 13 13 10 10 10 6 6 3 6 13 10 10
39 39 29 29 26 29 23 26 26 23 19 16 16 19 19 19 19 16 19 23 26 26 23 19 16 19 19 16 16 16 13 16 13 6 6 6 6 6 6 6 10 13 6
29 29 23 29 29 26 23 19 19 23 19 19 19 19 16 16 16 16 13 16 19 13 16 23 16 16 19 16 16 19 6 10 6 3 3 6 6 6 10 10 6 6 3
26 19 19 23 23 26 23 19 19 19 16 16 16 13 16 13 10 10 13 16 16 16 13 10 13 19 16 16 13 13 3 0 0 0 3 6 6 6 3 0 0 3 3
16 16 13 13 16 16 19 23 19 19 16 13 16 13 13 13 10 6 10 13 10 10 6 10 10 10 13 13 13 13 13 6 0 3 0 0 3 3 3 3 3 3 3
13 13 13 13 10 16 16 19 19 19 19 16 16 16 10 10 10 6 6 6 3 6 13 10 10 10 10 13 13 13 16 10 3 3 0 3 3 3 3 3 3 3 3

GEFSSE_con_cape1000_174.txt.gz
Probability
35 52 90 94 94 97 97 97 100 100 100 100 97 100 100 100 100 100 100 97 94 94 87 81 84 84 81 71 68 81 81 87 81 81 81 74 81 90 90 94 87 87 97
42 65 97 94 94 97 97 97 97 97 97 97 100 100 100 100 100 100 97 90 90 87 84 71 71 74 74 65 68 74 81 77 81 81 81 77 81 84 90 90 90 90 97
45 65 90 97 94 94 97 97 97 97 97 97 97 97 97 94 94 90 87 81 77 74 68 71 68 68 68 68 71 77 77 81 90 97 97 90 77 84 84 87 100 100 94
45 58 81 97 94 94 94 94 94 94 94 97 94 94 94 94 94 87 84 74 77 71 58 65 61 61 61 68 68 65 74 81 97 97 97 84 77 87 84 87 90 87 87
61 74 97 97 94 94 94 94 90 90 90 90 90 87 90 94 90 87 77 77 71 74 68 68 65 65 58 55 58 68 77 90 97 97 84 84 77 90 94 77 74 77 77
61 71 90 94 94 94 94 94 94 90 90 90 90 90 87 84 84 81 81 71 68 68 71 71 77 68 65 71 71 77 87 90 90 74 68 65 74 90 94 77 71 68 74
65 68 74 94 94 94 94 94 90 87 84 81 81 77 77 81 84 74 68 68 74 74 68 65 65 71 81 77 81 81 87 90 87 61 58 74 81 90 90 94 84 71 74
61 61 77 90 94 90 87 87 84 81 81 77 81 74 74 81 84 77 68 65 61 61 65 61 65 65 65 68 74 74 81 87 61 52 58 68 84 90 90 87 84 84 77
61 58 61 71 84 87 87 81 81 77 74 71 71 68 74 74 71 68 71 68 58 55 55 55 55 61 61 65 71 74 81 77 68 35 35 65 84 81 84 81 84 81 81
48 58 55 58 77 81 81 77 74 71 74 74 71 65 61 61 58 55 61 61 55 55 52 52 55 61 68 74 68 74 77 81 42 19 32 65 84 81 81 74 81 81 84
52 58 52 65 65 58 52 71 74 71 71 68 68 65 61 65 58 55 55 55 52 52 55 61 65 71 77 77 84 84 84 45 29 26 52 77 81 84 74 74 71 71 68
58 61 61 65 61 55 52 74 77 65 74 65 61 65 65 71 65 52 52 55 52 48 48 52 58 65 68 65 71 77 58 39 35 26 52 74 71 68 68 74 68 68 65
65 61 68 68 68 58 68 61 71 68 65 68 58 65 61 61 61 55 58 55 58 52 48 55 58 58 48 52 65 65 48 35 32 32 55 61 55 48 48 55 74 71 65
68 58 61 65 68 65 61 68 68 68 61 55 55 55 52 55 55 52 58 58 58 61 58 61 58 52 42 45 42 39 42 42 42 45 39 52 52 55 48 42 42 48 55
65 65 58 65 71 71 74 65 61 68 61 55 55 52 52 48 48 45 55 55 52 55 52 55 55 48 45 35 35 39 35 35 35 29 35 48 55 55 45 39 32 26 39
65 68 71 71 65 61 61 58 61 55 58 55 52 52 48 48 48 52 48 55 52 48 48 48 45 48 42 39 35 32 32 29 32 26 26 39 45 48 42 32 35 29 29
68 71 68 61 61 61 58 55 52 52 52 52 52 48 48 42 45 48 52 45 48 45 45 39 39 39 35 29 32 32 23 29 26 23 23 26 26 26 32 35 32 26 19
71 68 65 52 55 55 55 55 55 45 45 48 45 45 45 45 39 45 45 48 48 48 42 42 39 35 32 29 32 26 26 29 19 26 26 19 16 19 23 23 23 23 23
65 61 61 55 52 52 52 52 48 42 39 39 42 39 39 42 42 45 45 45 45 45 45 32 39 35 29 26 23 26 23 19 16 10 19 19 16 19 16 13 19 19 19
58 61 52 48 52 55 45 42 42 32 35 35 35 39 39 39 39 39 42 39 39 42 35 32 32 32 23 26 19 16 23 19 16 13 13 10 16 16 13 10 10 19 19
55 55 48 48 48 48 42 32 29 23 32 35 35 35 35 35 35 35 35 35 32 29 32 32 29 23 23 23 19 19 19 13 13 16 19 16 10 10 10 10 10 6 6
52 45 48 48 48 42 45 39 39 32 32 26 26 29 29 26 26 23 29 29 29 29 29 29 26 19 19 19 16 13 10 13 16 6 10 13 10 10 3 3 3 3 3
45 42 32 42 45 39 39 35 26 26 23 23 23 26 23 23 23 26 26 23 26 26 26 26 26 23 13 13 19 13 10 6 6 10 10 6 6 3 0 3 0 0 0
45 39 42 35 32 35 32 29 23 23 23 23 23 23 19 19 19 19 19 16 16 19 23 19 23 23 16 13 16 23 16 16 6 3 6 3 3 0 0 0 0 0 0
39 35 35 35 35 32 32 32 23 16 23 26 23 19 19 19 16 13 10 10 16 13 13 23 16 19 13 13 13 19 16 10 6 3 3 3 3 3 0 0 0 0 0
32 32 35 32 29 29 26 23 19 19 19 19 16 19 19 16 13 10 10 6 6 16 16 16 16 13 16 6 6 13 10 13 6 3 3 3 3 3 0 0 0 0 0

GEFSSE_con_cape1000_180.txt.gz
Probability
58 84 94 90 97 100 100 97 94 94 97 100 100 100 100 100 100 100 100 100 97 94 84 84 87 84 77 71 74 84 90 87 87 87 81 87 90 94 97 97 90 90 97
68 90 94 97 100 97 100 100 94 97 97 97 100 100 100 97 97 97 90 90 90 87 71 65 74 68 68 68 71 74 71 84 87 87 90 84 90 100 100 97 94 94 97
71 87 97 97 97 97 100 97 97 97 94 90 90 97 97 97 94 87 84 81 81 77 61 58 58 58 61 65 68 71 74 77 97 90 84 74 84 100 97 97 94 97 97
74 77 94 97 94 94 97 97 97 94 94 90 90 90 94 94 90 90 77 74 81 71 61 52 58 61 58 58 61 68 71 77 87 94 65 58 52 87 90 90 90 97 97
68 77 90 94 94 94 94 97 97 94 94 94 90 84 87 87 87 84 81 71 71 68 65 61 55 55 61 65 61 77 74 81 87 87 52 42 29 71 84 90 90 87 90
74 84 90 94 94 94 94 94 94 94 90 90 87 84 81 81 84 84 77 65 61 52 52 58 55 61 65 65 74 74 74 84 81 45 45 32 35 71 81 81 87 87 94
74 81 87 94 94 94 94 94 94 90 90 87 84 81 84 87 90 77 71 61 65 65 58 61 65 65 65 65 68 74 84 74 52 35 32 29 29 77 81 84 90 84 90
68 84 84 90 90 90 90 94 94 90 87 90 90 81 77 84 81 74 65 61 55 55 65 61 68 68 68 71 74 81 84 81 55 23 13 13 29 74 74 77 87 84 87
58 71 81 84 87 90 90 87 81 84 81 81 77 84 81 77 71 61 58 58 55 55 55 48 55 55 68 74 77 77 77 84 48 23 19 6 48 77 84 84 87 81 84
48 61 65 71 71 74 77 81 81 77 74 74 71 68 65 68 68 68 61 61 52 52 48 52 55 58 65 74 77 77 77 71 29 19 13 23 65 74 77 77 74 77 81
35 52 52 58 55 61 65 68 68 71 65 61 58 61 61 52 48 45 52 58 52 45 45 48 52 55 58 58 71 71 71 42 16 16 10 39 65 68 74 74 71 71 81
42 39 42 45 42 52 58 58 58 58 58 55 52 52 45 32 26 35 45 48 48 48 42 48 48 48 52 35 35 42 32 13 13 16 10 58 71 65 65 65 68 68 68
39 39 32 32 29 39 29 42 45 35 45 39 35 42 32 23 23 29 23 35 39 35 29 23 35 29 19 13 3 3 10 10 6 10 13 58 65 61 61 71 68 65 65
39 35 29 29 26 23 23 26 23 23 23 26 19 23 16 19 10 3 3 16 23 13 10 6 6 10 6 6 3 3 0 0 0 6 10 52 61 58 61 58 65 52 55
39 32 42 29 23 19 19 19 26 23 23 16 16 23 10 6 3 6 6 13 3 0 3 3 3 0 0 0 3 3 0 3 0 10 6 26 48 55 52 52 45 42 45
42 39 32 29 26 29 26 23 32 26 19 16 13 16 23 6 10 6 6 6 0 0 0 6 0 0 0 0 0 0 6 6 0 6 3 16 32 32 39 48 39 35 35
35 39 39 35 32 29 19 16 23 26 19 13 13 13 19 16 16 10 6 3 0 0 0 0 0 0 0 0 0 0 0 0 0 3 3 3 16 23 23 35 42 32 23
35 39 35 35 26 23 23 23 19 19 19 19 10 16 23 19 13 13 13 6 3 3 3 3 0 0 0 0 0 0 0 0 0 0 0 0 10 10 16 19 32 26 23
29 26 29 26 19 19 13 13 19 19 19 19 16 16 19 19 16 10 10 10 6 6 3 3 0 0 0 0 0 0 0 0 0 0 0 0 0 0 0 10 19 19 13
29 32 29 23 16 13 10 10 13 13 13 13 13 13 13 16 16 10 10 3 6 6 3 3 0 0 0 0 0 0 0 0 0 0 0 0 0 0 0 0 0 0 6
29 32 23 19 10 10 10 13 13 13 10 13 13 13 13 13 16 13 13 3 3 3 3 3 0 0 0 0 0 0 0 0 0 0 0 0 0 0 0 0 0 0 0
26 23 26 23 10 10 10 10 10 10 10 10 13 13 13 16 16 19 10 6 3 3 3 3 0 0 0 0 0 0 0 0 0 0 0 0 0 0 0 0 0 0 0
26 23 23 19 10 10 10 10 10 10 10 10 10 10 10 13 6 10 10 6 3 3 3 3 0 0 0 0 0 0 0 0 0 0 0 0 0 0 0 0 0 0 0
23 19 16 13 10 6 3 6 6 10 6 10 10 6 6 6 10 10 6 3 3 3 3 3 0 0 0 0 0 0 0 0 0 0 0 0 0 0 0 0 0 0 0
19 19 13 10 10 6 6 6 6 6 6 10 6 6 6 6 3 3 3 3 3 3 3 3 0 0 0 0 0 0 0 0 0 0 0 0 0 0 0 0 0 0 0
16 16 13 6 10 6 6 6 6 6 6 6 6 6 6 3 3 3 3 3 3 3 3 0 0 0 0 0 0 0 0 0 0 0 0 0 0 0 0 0 0 0 0

GEFSSE_con_cape1000_186.txt.gz
Probability
32 71 90 87 87 94 94 94 94 97 97 97 97 97 97 97 97 97 97 97 97 90 84 84 77 71 68 65 65 71 77 84 84 77 81 84 90 94 94 87 87 84 97
39 77 94 90 90 94 94 90 90 94 94 94 97 94 94 94 97 97 94 94 90 84 71 71 65 65 68 68 65 65 71 81 81 74 68 71 74 87 90 90 87 90 97
65 81 94 90 94 94 94 94 94 87 87 94 90 90 94 94 94 94 87 84 81 71 65 58 61 55 58 61 65 68 68 74 77 68 65 68 74 84 90 90 94 97 97
71 84 87 94 97 94 94 97 97 87 87 90 94 97 97 94 94 84 84 81 74 65 58 55 45 45 45 48 48 55 58 58 68 68 71 68 68 77 87 87 94 94 97
68 87 90 94 94 94 94 94 94 87 87 87 87 90 84 84 81 77 71 68 71 61 61 48 42 45 48 48 58 58 61 58 68 65 48 58 68 77 84 84 94 94 97
74 81 90 94 94 94 94 94 90 90 87 87 84 84 84 77 77 77 74 65 65 58 55 55 52 39 45 48 52 52 61 65 52 48 42 29 42 65 90 90 87 94 94
71 74 94 94 94 94 90 90 90 90 90 87 84 81 81 81 77 71 71 65 55 52 55 52 68 65 58 52 52 58 58 58 42 35 35 32 29 65 84 90 94 94 90
77 77 81 94 94 94 90 87 87 84 84 87 87 81 71 71 68 61 58 55 48 55 52 52 61 58 61 61 61 58 61 61 48 29 26 39 39 71 87 87 94 94 94
77 74 77 84 84 87 90 87 84 81 81 77 77 74 71 71 61 68 68 65 58 55 55 48 52 52 65 58 61 71 71 74 45 32 26 23 35 61 84 84 97 94 90
65 68 71 71 81 77 77 84 81 77 77 74 68 61 55 52 58 55 58 65 58 55 45 45 48 48 52 55 61 61 61 58 32 23 26 23 58 71 81 84 90 94 90
55 61 68 65 61 61 71 71 71 68 61 55 55 55 55 45 45 45 39 55 48 45 42 42 42 45 45 48 55 61 55 42 26 26 29 35 61 68 77 87 87 84 90
39 45 48 42 48 52 65 61 55 58 52 52 48 52 39 29 29 29 42 45 42 42 39 42 42 35 32 26 26 32 29 26 32 26 29 42 58 68 71 77 71 74 77
29 35 32 32 35 39 35 39 42 42 39 32 35 35 32 29 23 26 23 26 32 32 29 23 19 19 19 16 10 10 10 10 19 23 29 48 58 58 58 68 68 71 74
32 26 29 32 26 23 16 26 26 32 29 29 29 23 19 19 16 10 13 13 6 6 13 16 16 13 16 6 6 10 6 6 10 10 13 45 55 55 55 55 61 65 61
35 32 16 19 16 16 16 16 16 13 13 16 13 13 10 10 6 6 10 3 3 3 3 3 10 3 3 3 6 6 6 6 10 10 10 29 45 48 52 48 55 52 55
26 26 16 16 13 13 16 13 13 10 10 10 6 6 10 3 3 6 0 0 0 0 3 3 3 0 3 3 3 3 3 6 13 10 6 13 32 39 39 45 42 42 42
23 19 16 13 13 13 13 10 6 3 3 3 3 3 3 3 0 0 0 0 0 0 3 3 0 0 0 0 0 0 0 0 6 6 6 3 6 19 29 26 35 39 39
19 19 16 23 13 10 6 6 3 3 10 3 0 0 6 10 6 0 0 0 0 0 3 3 0 0 0 0 0 0 0 0 6 6 6 3 3 6 13 26 26 29 35
23 19 16 16 10 10 6 6 3 3 3 0 0 0 0 10 6 6 0 0 0 0 0 0 3 0 0 0 0 0 0 0 0 3 3 0 0 0 3 6 26 23 23
23 16 16 16 6 6 3 6 3 3 0 0 0 0 3 3 0 3 3 3 0 0 0 0 0 0 0 0 0 0 0 0 0 0 3 0 0 0 0 0 13 13 23
19 16 16 16 6 6 3 6 3 3 3 3 3 0 3 3 3 0 0 3 0 0 0 0 0 0 0 0 0 0 0 0 0 0 0 0 0 0 0 0 0 0 3
23 19 16 6 6 6 3 3 6 6 3 3 3 3 3 3 3 6 0 0 0 0 0 0 0 0 0 0 0 0 0 0 0 0 0 0 0 0 0 0 0 0 0
19 19 13 6 3 3 3 3 3 0 0 0 0 0 0 3 3 3 3 0 3 6 6 3 0 0 0 0 0 0 0 0 0 0 0 0 0 0 0 0 0 0 0
19 13 13 6 3 3 3 3 3 3 3 3 3 0 0 3 3 3 3 3 3 3 6 6 0 0 0 0 0 0 0 0 0 0 0 0 0 0 0 0 0 0 0
13 13 10 6 3 3 3 3 3 3 3 3 3 3 3 0 0 3 3 3 3 0 3 0 0 0 0 0 0 0 0 0 0 0 0 0 0 0 0 0 0 0 0
13 6 6 6 3 6 3 3 3 3 3 3 3 3 3 3 0 0 0 0 0 0 0 0 0 0 0 0 0 0 0 0 0 0 0 0 0 0 0 0 0 0 0

GEFSSE_con_cape1000_192.txt.gz
Probability
10 48 77 84 87 90 90 87 97 90 90 94 94 97 97 97 97 94 97 94 90 84 74 58 68 65 58 55 58 68 71 68 77 81 81 90 90 94 90 90 94 84 94
29 55 81 90 87 90 90 90 87 90 90 94 94 94 94 94 94 94 94 90 87 74 68 61 55 58 48 45 48 55 55 71 74 74 74 81 84 87 87 84 87 97 97
39 58 71 90 90 87 90 90 90 94 94 94 94 97 97 97 97 94 87 84 74 65 61 55 52 58 48 52 52 52 48 61 71 68 71 65 68 84 87 87 84 94 97
58 71 71 94 94 90 90 90 87 90 90 94 90 87 90 84 81 81 74 65 68 65 52 48 48 45 45 48 52 52 52 52 52 68 61 35 42 84 81 84 87 90 97
58 84 87 94 94 94 94 90 87 87 87 90 90 81 77 81 77 77 74 71 65 55 52 48 48 48 45 45 48 52 55 61 65 61 42 39 65 84 81 81 84 87 97
58 71 87 94 94 94 94 90 87 87 87 84 81 81 81 74 71 68 68 58 55 55 55 52 52 48 48 48 48 48 55 65 58 32 23 39 61 87 81 84 84 87 94
52 55 84 94 94 94 94 90 90 87 84 84 81 77 74 71 71 71 65 58 55 55 52 48 48 48 55 52 48 48 48 42 52 35 35 39 61 77 77 84 84 87 94
55 61 84 90 94 94 94 94 87 84 81 77 74 74 74 71 65 61 55 55 55 55 48 52 45 45 52 52 52 58 65 52 35 23 26 35 55 68 74 81 87 97 97
55 65 77 84 90 90 87 84 81 77 74 74 77 74 65 61 61 61 58 58 55 52 52 45 42 42 45 42 55 61 61 65 45 39 19 42 71 71 74 81 84 90 90
61 71 68 71 77 74 74 81 77 77 74 71 68 58 55 55 58 55 58 55 48 39 32 39 42 42 39 48 48 48 58 58 26 29 35 52 68 61 71 77 71 74 87
65 71 71 71 77 65 61 68 68 68 68 65 65 55 52 42 42 52 42 45 45 39 39 39 39 35 35 42 42 39 52 35 13 29 52 52 52 61 68 74 74 74 74
61 68 71 74 74 61 58 68 65 65 65 61 58 52 52 48 42 35 39 42 39 39 39 39 35 39 32 29 35 32 39 23 26 32 39 55 48 48 61 68 68 65 58
58 65 68 77 71 68 74 68 65 65 61 58 48 52 58 45 42 42 39 39 45 39 35 39 39 35 29 32 26 23 16 16 19 23 29 42 42 42 52 52 65 55 58
55 65 58 68 74 68 74 71 68 65 58 55 58 52 52 55 48 45 45 39 39 35 29 35 35 32 32 32 23 19 16 19 19 23 48 35 45 45 48 52 55 58 55
58 65 65 61 68 74 74 65 52 52 48 55 52 52 52 55 52 42 45 45 39 39 35 39 32 35 42 35 29 26 23 19 16 10 29 42 42 39 39 48 48 48 52
58 55 58 61 61 65 65 61 55 48 55 45 48 55 55 52 55 48 52 52 42 42 29 32 29 39 35 35 32 32 26 19 19 23 16 32 39 39 39 39 45 45 45
61 55 61 58 58 61 52 52 48 42 45 45 45 48 55 52 55 55 48 45 45 39 35 35 29 32 32 32 29 35 32 32 29 32 19 29 32 35 35 42 35 42 35
65 65 65 48 52 58 58 52 39 35 39 42 39 42 48 48 48 48 39 39 39 32 29 29 29 26 32 32 26 23 23 32 32 29 23 26 32 26 29 35 32 35 32
68 65 61 58 52 48 48 52 42 45 35 32 32 39 35 35 32 35 32 39 32 29 23 23 23 23 26 26 19 26 23 23 29 19 29 23 19 26 32 32 35 29 29
61 65 61 55 48 45 42 45 45 39 32 29 32 23 26 26 26 29 26 29 29 29 29 29 29 26 26 19 13 13 19 23 16 19 16 19 23 23 23 19 26 26 26
58 65 58 48 52 52 42 42 42 45 29 26 23 23 19 16 19 23 16 23 23 26 23 23 23 23 19 19 19 13 10 13 10 26 16 16 19 23 23 23 19 19 23
61 58 58 52 48 48 42 42 39 32 29 29 29 23 19 16 23 13 23 23 19 19 13 16 19 19 19 13 16 6 3 3 10 0 19 16 19 19 16 10 13 16 13
61 61 52 52 48 48 45 39 29 29 23 26 29 19 16 16 16 16 13 19 19 19 16 16 19 16 16 13 6 10 19 6 3 3 10 10 23 16 13 10 10 13 16
58 58 55 55 45 45 35 29 29 23 23 23 26 16 16 16 16 16 16 13 13 16 16 16 16 16 16 10 6 10 19 19 3 6 6 10 6 13 13 3 3 6 10
55 52 52 48 39 32 29 35 32 19 16 13 19 19 16 16 16 16 13 13 13 19 16 13 16 13 13 13 6 10 6 13 3 6 3 3 6 6 10 13 10 6 3
52 48 45 42 39 32 29 29 26 23 19 16 13 16 13 16 16 16 16 13 13 16 13 16 13 13 16 13 13 6 6 10 10 0 0 0 0 0 0 10 3 6 3

GEFSSE_con_cape1000_198.txt.gz
Probability
35 55 90 87 90 94 94 94 94 94 90 94 94 90 87 90 87 84 81 74 68 65 58 55 52 55 39 45 42 45 45 55 61 65 71 71 84 84 90 87 87 87 90
48 55 94 94 94 94 94 87 87 90 90 90 94 97 97 90 94 87 87 65 61 58 48 48 45 45 39 32 35 32 39 45 55 65 61 74 84 84 81 84 90 90 87
52 61 90 97 97 90 94 94 90 90 90 94 94 94 94 94 94 87 74 61 55 55 55 45 42 42 35 32 35 35 39 39 45 61 68 58 77 94 87 84 84 90 90
55 65 74 97 94 94 94 94 90 87 87 84 84 87 87 87 81 71 71 58 58 55 42 45 42 35 39 35 32 35 35 39 58 71 61 52 65 87 90 90 87 84 90
61 68 94 94 94 94 94 90 90 87 81 81 81 77 74 68 68 71 68 55 45 42 42 42 29 32 42 45 48 42 45 48 48 55 42 45 61 87 84 77 77 81 97
77 71 90 94 94 94 94 90 87 71 71 74 71 71 68 68 68 65 52 45 39 42 42 42 39 42 35 42 39 45 55 55 55 39 39 42 65 84 84 74 74 81 94
68 68 81 90 94 94 94 94 87 81 74 68 68 68 68 68 65 61 52 45 39 45 45 45 48 42 39 35 35 42 52 48 55 42 32 42 68 84 84 71 74 81 90
68 65 74 94 94 94 94 87 84 81 74 71 68 68 68 65 61 61 55 52 45 42 39 39 42 45 39 39 42 45 45 45 32 23 29 45 77 87 84 71 74 74 81
58 65 71 81 87 87 90 90 84 74 74 71 71 71 65 61 61 58 52 52 45 42 39 35 39 42 42 42 48 48 48 58 48 23 26 42 81 81 74 74 77 81 84
48 71 71 68 77 81 77 84 81 74 71 71 68 61 58 55 52 52 48 55 45 45 32 39 39 39 42 42 45 52 52 55 39 16 16 45 68 74 74 71 77 77 77
61 71 65 71 68 68 65 77 77 71 68 68 65 61 58 58 45 55 48 52 45 45 39 39 39 42 42 39 45 55 52 42 16 19 26 55 68 68 58 71 71 77 77
61 61 55 74 71 71 71 71 71 65 68 68 68 61 68 71 58 35 45 52 48 39 39 39 42 42 39 35 39 52 45 35 23 19 35 65 65 58 52 61 68 71 65
61 71 68 68 65 74 71 74 77 71 71 65 61 61 65 65 58 52 52 48 39 39 35 35 32 32 32 35 29 32 42 26 23 13 26 61 65 55 48 58 65 65 55
68 74 65 71 71 77 77 71 77 74 65 58 61 58 61 58 58 55 55 42 35 35 35 35 35 35 32 32 32 32 26 23 19 19 35 55 55 48 45 48 48 52 48
74 74 77 74 81 81 81 77 74 71 61 58 65 58 58 55 55 55 55 48 42 42 39 39 39 35 42 39 29 23 26 26 26 29 32 35 48 48 42 42 39 39 48
74 71 74 71 74 77 71 71 65 61 68 61 61 58 55 55 52 52 48 45 42 42 35 39 39 35 42 35 32 29 32 29 26 26 29 29 32 42 42 48 42 35 42
71 74 74 68 71 68 65 65 65 58 55 55 52 52 52 48 48 48 45 39 35 35 35 39 39 35 32 32 35 29 32 32 32 29 29 23 26 32 45 52 45 45 45
74 77 74 65 61 61 65 65 61 58 52 52 52 48 48 45 39 42 39 39 39 32 32 35 35 29 32 32 29 32 29 32 32 32 26 26 29 19 35 48 48 45 45
71 68 68 65 61 61 61 61 58 55 52 52 52 52 42 35 32 35 32 32 29 26 29 29 32 29 23 23 23 26 26 26 23 19 26 23 26 32 29 42 45 48 42
68 65 68 68 61 61 58 58 52 52 52 52 45 42 42 32 32 32 29 32 32 32 29 19 23 23 19 19 10 10 23 23 23 23 19 16 19 23 23 23 26 42 42
68 65 68 68 65 58 58 58 52 52 52 42 39 35 35 29 26 29 29 29 26 29 26 26 16 13 10 13 16 10 13 19 19 19 19 19 10 19 19 23 29 23 19
68 68 68 68 61 58 58 52 52 48 42 39 35 32 32 29 29 23 29 29 26 26 19 19 16 6 6 6 10 10 13 16 13 6 13 13 13 19 13 13 26 16 10
61 61 65 65 61 55 52 52 48 45 42 35 32 32 32 32 26 23 23 23 23 23 23 16 16 6 6 6 6 10 3 3 13 13 13 13 16 13 13 16 16 6 6
52 58 61 61 65 58 48 45 45 45 39 39 32 29 29 26 23 23 19 16 19 23 16 16 10 10 10 6 10 10 10 13 6 6 3 3 0 6 10 0 6 6 6
42 48 58 61 65 58 48 45 45 35 32 35 35 23 26 26 23 19 19 16 19 19 19 23 10 10 10 10 10 10 6 6 3 3 0 0 0 0 6 6 6 3 3
42 42 48 55 55 48 45 42 42 32 29 29 26 23 23 26 23 19 16 19 16 19 19 23 13 13 13 10 10 10 6 3 3 3 0 0 0 3 3 6 3 6 3

GEFSSE_con_cape1000_204.txt.gz
Probability
39 81 94 94 97 94 94 94 94 90 94 90 87 87 90 94 94 94 87 87 84 74 68 68 65 61 61 58 58 68 61 58 65 65 65 68 77 84 90 87 97 94 97
48 87 94 94 94 94 94 94 90 94 94 90 94 90 97 97 97 94 90 84 74 68 65 65 61 52 48 48 39 45 48 55 65 68 58 65 74 90 94 87 97 97 97
52 87 90 97 97 97 94 94 94 94 94 94 94 94 97 97 90 87 74 74 74 61 55 52 52 45 39 35 39 39 39 45 58 65 58 35 65 90 97 90 97 97 97
58 68 84 97 97 94 94 94 94 94 94 97 97 94 94 90 87 77 74 65 61 58 52 48 45 39 39 32 39 35 32 42 45 55 29 29 45 77 97 90 90 87 90
55 71 87 97 94 94 94 94 94 94 94 97 94 94 87 84 74 74 74 61 48 52 39 35 32 35 29 26 35 39 42 48 55 55 26 26 29 65 90 87 90 87 90
52 65 94 94 94 94 90 94 94 94 94 90 84 81 77 77 77 71 68 61 52 42 42 35 39 32 29 32 35 39 42 48 52 29 23 26 29 58 81 87 87 84 87
58 68 90 94 94 94 94 94 94 84 84 81 81 81 71 77 77 71 61 55 48 48 42 42 45 45 39 39 39 42 42 42 32 23 16 13 29 61 74 77 74 84 84
58 74 84 90 90 90 94 94 90 87 81 77 77 71 71 77 71 65 58 55 52 52 52 52 55 52 45 42 42 48 42 39 29 13 6 10 32 61 71 74 81 81 84
55 65 74 84 90 90 90 87 84 84 74 74 71 71 77 74 65 65 61 58 52 48 52 48 48 45 45 42 52 52 52 52 39 19 13 10 35 65 77 74 74 74 74
52 52 58 68 68 74 77 81 81 77 74 77 74 74 74 68 65 61 61 61 55 48 45 48 48 45 42 45 45 45 48 39 32 23 13 10 45 58 68 74 68 71 81
48 52 52 61 61 65 71 81 77 74 71 71 68 74 68 48 48 42 45 61 55 52 45 42 39 45 45 42 42 42 42 32 29 16 6 23 55 55 55 58 65 68 74
39 42 48 48 48 55 61 71 68 71 61 58 48 55 48 35 32 35 48 61 61 55 48 42 39 35 35 32 32 42 35 29 16 10 6 35 48 48 55 55 55 55 55
32 35 42 48 48 48 39 58 55 48 52 48 35 39 35 26 16 23 19 35 42 42 35 35 35 35 29 26 23 10 13 19 19 10 13 35 42 35 39 48 48 55 55
32 39 42 45 39 32 32 35 39 42 39 42 39 35 19 19 26 19 13 13 29 29 23 23 23 23 23 23 16 6 3 6 6 3 3 39 39 35 32 48 45 48 52
48 48 39 45 39 39 35 29 29 26 26 23 29 29 23 26 26 16 19 16 23 23 19 19 16 16 16 13 10 6 3 3 3 3 0 35 42 35 32 39 39 42 42
42 45 48 35 39 35 29 32 32 26 26 23 32 26 23 23 19 16 16 16 16 16 6 6 6 3 6 0 0 0 3 3 3 0 0 10 35 39 35 35 35 35 42
45 39 32 32 35 39 32 32 32 29 23 23 29 26 23 23 16 16 16 10 10 6 3 0 0 0 0 0 0 0 0 3 3 3 3 3 10 29 35 35 48 42 42
39 39 35 45 39 39 32 32 32 29 26 19 29 26 29 23 16 13 10 10 3 3 3 3 0 0 0 0 0 0 0 0 0 0 0 0 0 0 16 39 45 45 39
42 45 48 42 42 39 39 29 32 29 19 26 26 23 23 23 19 19 16 6 3 3 3 3 3 0 0 0 0 0 0 0 0 0 0 3 0 0 0 3 42 45 35
39 45 42 39 39 39 42 42 32 26 26 26 16 23 23 23 23 16 6 10 6 6 3 3 3 0 0 0 0 0 0 0 0 0 0 0 0 0 0 0 0 10 35
39 39 35 32 35 35 39 39 35 32 29 19 23 23 19 16 16 13 10 3 3 6 3 0 0 0 0 0 0 0 0 0 0 0 0 0 0 0 0 0 0 0 0
32 32 32 32 35 35 32 32 32 26 23 23 16 16 23 13 13 13 3 3 0 0 0 0 0 0 0 3 0 0 0 0 0 0 0 0 0 0 0 0 0 0 0
32 32 32 32 32 35 29 26 29 23 16 16 10 13 10 6 6 6 3 3 0 0 0 0 0 3 3 0 0 0 0 0 0 0 0 0 0 0 0 0 0 0 0
29 29 32 29 32 26 26 23 29 26 19 10 10 10 10 10 6 3 3 3 0 0 0 0 3 3 3 0 0 0 0 0 0 0 0 0 0 0 0 0 0 0 0
26 26 32 32 29 29 29 23 19 16 10 10 3 6 6 6 3 3 3 3 0 0 0 3 0 3 0 0 0 0 0 0 0 0 0 0 0 0 0 0 0 0 0
26 26 29 26 26 23 19 10 10 3 0 3 0 0 0 0 0 0 0 3 0 0 0 0 0 0 0 0 0 0 0 0 0 0 0 0 0 0 0 0 0 0 0

GEFSSE_con_cape1000_210.txt.gz
Probability
26 68 90 90 94 90 87 90 90 97 94 94 94 94 94 94 97 97 87 87 84 84 77 74 71 68 65 65 68 61 65 61 65 55 58 68 77 84 87 87 77 77 90
35 71 94 94 90 90 90 90 90 94 97 94 94 94 94 94 90 90 87 87 84 77 71 71 68 71 65 58 58 55 58 52 58 58 55 65 74 77 94 94 94 94 94
45 77 90 94 94 94 94 90 94 94 94 94 94 94 94 90 87 87 81 74 74 68 65 58 58 55 55 52 55 55 48 45 68 58 61 55 55 77 84 87 90 97 94
55 71 87 94 94 94 90 94 94 90 94 90 90 90 87 81 81 81 74 74 74 61 58 58 48 42 48 45 45 48 52 55 61 48 45 45 45 74 81 94 87 87 94
61 61 81 94 97 94 94 94 87 87 90 90 87 87 84 81 81 81 77 74 68 65 61 55 48 48 39 39 42 42 42 45 52 42 39 39 35 58 81 84 81 77 84
61 71 77 90 90 90 87 87 90 90 87 84 87 87 81 81 81 81 74 71 65 65 65 52 48 45 35 35 42 39 39 45 48 42 42 35 32 55 77 84 84 90 84
48 61 71 90 90 87 87 87 87 84 84 84 81 81 81 81 84 81 77 68 65 58 55 48 45 45 39 39 39 45 52 48 42 35 29 35 35 58 71 81 77 81 84
48 55 68 87 87 87 87 87 84 77 77 77 81 81 84 81 84 74 74 65 61 58 55 52 52 52 52 45 42 39 52 48 35 29 26 26 35 58 71 58 74 81 84
42 58 65 74 81 87 84 77 77 77 77 77 74 71 71 81 74 68 68 61 55 58 52 52 52 52 52 48 48 45 45 42 42 23 19 26 29 52 61 61 71 68 77
48 45 55 61 68 68 74 77 77 77 74 71 71 68 71 71 65 52 61 55 55 55 55 55 55 48 48 45 42 39 39 42 32 26 23 13 39 52 55 58 65 68 65
35 39 45 52 58 65 65 71 74 74 71 68 68 65 65 48 45 45 48 58 58 58 58 48 48 48 48 39 39 42 35 32 29 26 23 26 39 45 52 52 55 61 61
39 39 39 45 48 48 65 65 58 65 61 65 61 55 42 39 35 42 45 48 52 52 52 52 45 45 39 29 29 29 29 26 26 29 26 32 48 52 48 48 48 45 48
42 45 42 42 42 45 45 39 35 35 29 35 42 35 35 26 19 29 26 29 32 39 35 35 35 32 29 29 26 23 23 23 29 26 23 29 48 45 45 48 48 45 42
42 45 42 42 42 39 35 32 32 26 26 29 35 32 26 19 16 19 16 16 16 16 19 23 26 19 19 23 23 23 19 16 23 23 6 35 42 45 39 42 48 45 45
39 39 35 35 39 35 35 29 23 23 23 23 26 19 19 23 16 13 13 13 10 13 16 19 19 16 16 19 16 16 19 16 16 16 10 23 35 35 32 32 35 35 35
32 26 29 29 29 26 29 23 23 19 19 19 23 19 23 19 6 6 6 10 6 10 13 10 6 10 10 6 3 6 6 10 10 10 6 10 26 32 35 32 32 32 32
26 26 29 29 23 16 19 19 19 23 19 23 23 16 16 16 10 13 10 10 6 10 6 6 6 3 3 3 3 3 3 3 6 6 6 6 6 13 26 29 29 26 29
29 32 29 32 19 16 16 16 19 23 23 23 23 19 13 13 10 6 6 6 10 10 6 3 3 3 3 3 3 3 3 3 0 0 0 3 6 6 10 26 29 26 29
16 19 26 26 26 16 19 16 19 16 19 16 16 16 19 16 13 6 10 10 10 6 3 3 0 0 0 0 0 0 0 0 0 0 0 0 3 6 6 6 23 19 23
10 13 23 26 23 23 16 19 19 13 10 16 19 19 16 16 13 13 13 10 3 3 0 0 0 0 0 0 0 0 0 0 0 0 0 0 0 0 0 6 10 13 19
13 13 19 16 16 13 19 16 13 16 10 10 16 16 13 13 13 13 13 6 3 3 0 0 0 0 0 0 0 0 0 0 0 0 0 0 0 0 0 0 3 3 6
10 13 10 10 10 10 13 13 6 6 6 6 6 10 10 10 10 16 6 3 3 3 0 0 0 0 0 0 0 0 0 0 0 0 0 0 0 0 0 0 0 0 0
10 6 6 10 10 10 10 6 10 10 10 6 3 3 3 3 6 6 6 3 0 3 0 0 0 0 0 0 0 0 0 0 0 0 0 0 0 0 0 0 0 0 0
10 3 6 10 13 10 13 13 13 10 10 6 3 3 0 0 0 0 6 3 0 3 0 0 0 0 0 0 0 0 0 0 0 0 0 0 0 0 0 0 0 0 0
10 10 6 6 6 6 6 13 10 6 6 3 0 0 0 0 0 0 0 0 0 0 0 0 0 0 0 0 0 0 0 0 0 0 0 0 0 0 0 0 0 0 0
3 3 10 6 6 6 6 6 6 3 0 0 0 0 0 0 0 0 0 0 0 0 0 0 0 0 0 0 0 0 0 0 0 0 0 0 0 0 0 0 0 0 0

GEFSSE_con_cape1000_216.txt.gz
Probability
32 65 81 87 87 94 94 90 87 87 90 94 97 97 97 97 94 87 84 84 84 77 74 68 71 61 61 61 65 61 68 68 58 65 65 71 74 74 84 84 77 68 84
42 65 87 90 90 94 94 94 94 90 87 87 90 90 90 90 87 81 81 81 77 74 58 58 61 58 55 55 61 61 61 61 52 65 61 65 77 84 77 68 74 81 87
55 68 77 90 94 94 94 94 90 90 87 90 87 87 87 84 84 81 81 81 74 71 68 61 65 61 58 55 52 52 48 55 61 61 58 55 65 87 84 77 81 84 87
65 65 71 87 90 90 94 90 87 84 87 90 87 87 84 84 81 81 81 77 74 71 65 52 58 58 52 52 48 48 48 55 45 48 48 29 42 68 74 74 84 84 84
71 74 87 94 94 94 90 90 81 81 84 87 87 84 84 81 77 77 77 77 71 65 61 55 55 55 52 52 52 52 45 45 52 39 26 19 39 65 65 74 77 84 87
68 65 81 94 94 90 87 81 81 77 74 74 77 74 84 81 77 77 77 74 68 68 58 55 52 48 45 39 45 45 45 45 42 29 19 23 42 77 71 74 77 84 90
52 55 71 94 90 90 84 81 74 74 74 74 74 74 74 81 84 81 77 74 71 65 48 45 42 39 42 42 45 45 52 58 42 23 26 32 45 65 71 77 84 87 87
52 58 74 84 81 81 81 81 74 74 74 74 74 74 74 74 74 71 74 68 68 52 48 42 48 52 52 45 45 45 45 48 23 6 23 29 42 65 68 77 87 77 81
55 61 65 65 68 74 81 81 77 74 74 74 71 71 71 71 65 65 61 58 58 48 52 48 52 52 42 39 39 42 42 42 29 23 13 23 45 55 61 65 65 81 74
48 58 58 65 65 65 71 74 71 74 74 71 68 68 65 65 61 61 61 61 52 48 52 52 48 48 42 39 39 39 39 42 23 10 16 23 45 52 65 61 58 65 65
58 61 65 55 61 61 58 58 65 71 71 68 68 65 65 52 39 55 42 55 48 45 42 42 42 45 42 39 39 39 35 42 19 23 35 32 39 55 55 48 55 55 52
58 55 65 58 58 55 48 61 68 58 65 61 55 58 61 55 52 29 39 45 42 42 42 39 39 39 42 35 35 39 35 32 26 19 32 45 42 48 55 55 55 52 48
55 55 52 52 48 45 55 61 68 71 74 65 68 65 61 58 52 32 45 48 42 42 39 39 39 39 29 39 35 32 32 29 29 16 23 39 39 48 52 48 45 45 48
55 48 42 52 55 58 58 68 71 68 71 61 61 58 61 61 52 48 55 39 45 42 42 39 39 29 29 29 26 26 29 35 26 26 39 35 42 45 45 45 35 35 39
48 48 45 55 58 61 61 58 55 68 61 68 68 65 68 58 52 45 55 48 39 32 29 32 29 23 23 26 26 23 23 23 23 26 32 35 39 39 39 42 35 35 39
48 48 45 48 55 58 58 58 58 55 55 52 55 52 52 52 48 52 48 45 39 35 32 32 26 32 32 32 26 19 19 23 23 26 26 26 26 35 39 29 29 32 35
52 45 45 52 52 58 52 52 52 52 52 45 48 48 48 42 42 45 39 45 39 39 39 32 32 32 32 29 23 26 32 29 26 23 23 19 19 23 23 29 26 29 32
48 48 42 39 48 48 55 55 55 52 39 42 35 35 39 39 39 45 42 39 39 39 39 35 32 32 26 26 23 26 16 19 19 19 19 10 13 13 19 23 26 29 29
48 52 45 45 42 42 39 42 39 42 35 32 29 35 39 39 35 45 42 42 39 35 35 29 32 32 29 26 13 19 16 16 16 10 10 10 13 19 16 16 19 26 29
42 45 32 35 32 39 35 35 35 35 35 32 35 35 39 45 39 39 42 42 35 29 32 32 32 32 26 23 10 6 13 16 10 16 13 10 13 13 13 13 16 10 16
35 35 39 35 35 35 35 35 35 35 29 32 32 32 35 35 35 35 26 39 35 35 32 29 26 26 19 23 13 13 13 6 10 6 10 10 10 13 19 16 16 13 16
29 26 39 35 32 29 35 32 39 35 32 32 32 32 29 29 29 29 29 26 26 26 29 29 26 16 16 19 16 10 0 6 10 3 10 10 10 6 13 10 13 13 16
29 23 19 26 29 29 32 29 23 29 29 29 26 26 26 26 26 26 23 23 23 19 19 26 26 19 19 13 13 10 6 0 3 10 13 6 6 6 10 13 13 13 10
23 19 19 29 29 26 29 26 23 26 29 23 19 26 19 23 26 26 26 23 23 19 23 26 19 16 10 13 13 10 10 10 6 10 10 10 6 13 10 3 3 6 6
23 23 23 26 26 26 26 26 35 32 32 26 23 19 16 23 32 26 19 23 23 16 16 13 10 10 10 10 6 6 6 10 6 6 10 10 6 10 10 6 10 6 10
19 16 16 23 23 23 19 19 19 23 26 23 23 23 19 23 26 23 16 10 13 13 13 10 10 6 13 10 6 6 10 10 6 6 3 6 6 6 6 6 6 3 3